Wetterdaten: aktuell Donnerstag, 02.04.2020 13:34
Datum Zeit Temp. A. Feuchte A. Luftdruck Regen Sonnenschein Regendauer ET UV Solar Taupunkt Windchill Windben Empfang
02.04.2020 13:34 9,6 C 66 % 1013,1 hPa 0,0 l/m 0 min 0 min 0,000 mm 2,8 UV-I 349 W/m 3,6 C 9,6 C 11,3 km/h (2 Bft) 98 %
02.04.2020 13:32 9,6 C 65 % 1013,0 hPa 0,0 l/m 0 min 0 min 0,000 mm 2,6 UV-I 334 W/m 3,4 C 9,6 C 17,7 km/h (3 Bft) 100 %
02.04.2020 13:30 9,7 C 65 % 1013,1 hPa 0,0 l/m 0 min 0 min 0,000 mm 2,6 UV-I 334 W/m 3,4 C 9,7 C 16,1 km/h (3 Bft) 100 %
02.04.2020 13:28 9,7 C 65 % 1013,1 hPa 0,0 l/m 0 min 0 min 0,000 mm 2,6 UV-I 316 W/m 3,4 C 6,5 C 17,7 km/h (3 Bft) 98 %
02.04.2020 13:26 9,8 C 65 % 1013,1 hPa 0,0 l/m 0 min 0 min 0,000 mm 2,6 UV-I 302 W/m 3,5 C 8,6 C 16,1 km/h (3 Bft) 98 %
02.04.2020 13:24 9,9 C 65 % 1013,1 hPa 0,0 l/m 0 min 0 min 0,000 mm 2,6 UV-I 300 W/m 3,6 C 8,3 C 19,3 km/h (3 Bft) 98 %
02.04.2020 13:22 10,0 C 65 % 1013,2 hPa 0,0 l/m 0 min 0 min 0,000 mm 2,6 UV-I 297 W/m 3,7 C 10,0 C 17,7 km/h (3 Bft) 94 %
02.04.2020 13:20 10,1 C 65 % 1013,2 hPa 0,0 l/m 0 min 0 min 0,000 mm 2,5 UV-I 286 W/m 3,8 C 10,1 C 14,5 km/h (3 Bft) 94 %
02.04.2020 13:18 10,2 C 65 % 1013,1 hPa 0,0 l/m 0 min 0 min 0,000 mm 2,8 UV-I 343 W/m 3,9 C 6,5 C 20,9 km/h (4 Bft) 94 %
02.04.2020 13:16 10,3 C 66 % 1013,2 hPa 0,0 l/m 0 min 0 min 0,000 mm 3,1 UV-I 420 W/m 4,2 C 10,3 C 14,5 km/h (3 Bft) 96 %
02.04.2020 13:14 10,3 C 66 % 1013,2 hPa 0,0 l/m 2 min 0 min 0,000 mm 3,1 UV-I 442 W/m 4,2 C 8,5 C 19,3 km/h (3 Bft) 96 %
02.04.2020 13:12 10,3 C 67 % 1013,2 hPa 0,0 l/m 2 min 0 min 0,000 mm 3,4 UV-I 533 W/m 4,4 C 9,6 C 17,7 km/h (3 Bft) 96 %
02.04.2020 13:10 10,3 C 66 % 1013,2 hPa 0,0 l/m 2 min 0 min 0,000 mm 3,4 UV-I 511 W/m 4,2 C 10,3 C 12,9 km/h (3 Bft) 96 %
02.04.2020 13:08 10,3 C 68 % 1013,2 hPa 0,0 l/m 2 min 0 min 0,000 mm 3,5 UV-I 948 W/m 4,7 C 10,3 C 14,5 km/h (3 Bft) 96 %
02.04.2020 13:06 10,3 C 67 % 1013,2 hPa 0,0 l/m 2 min 0 min 0,000 mm 3,7 UV-I 514 W/m 4,4 C 10,3 C 16,1 km/h (3 Bft) 94 %
02.04.2020 13:04 10,3 C 68 % 1013,3 hPa 0,0 l/m 2 min 0 min 0,304 mm 3,2 UV-I 643 W/m 4,7 C 10,3 C 19,3 km/h (3 Bft) 96 %
02.04.2020 13:00 10,2 C 68 % 1013,3 hPa 0,0 l/m 2 min 0 min 0,000 mm 4,1 UV-I 867 W/m 4,6 C 10,2 C 4,8 km/h (1 Bft) 96 %
02.04.2020 12:58 10,2 C 68 % 1013,2 hPa 0,0 l/m 2 min 0 min 0,000 mm 4,1 UV-I 885 W/m 4,6 C 10,2 C 19,3 km/h (3 Bft) 98 %
02.04.2020 12:56 10,1 C 69 % 1013,3 hPa 0,0 l/m 2 min 0 min 0,000 mm 3,9 UV-I 870 W/m 4,7 C 10,1 C 12,9 km/h (3 Bft) 98 %
02.04.2020 12:54 9,9 C 69 % 1013,3 hPa 0,0 l/m 2 min 0 min 0,000 mm 4,0 UV-I 892 W/m 4,5 C 9,9 C 6,4 km/h (2 Bft) 94 %
02.04.2020 12:52 9,8 C 69 % 1013,4 hPa 0,0 l/m 2 min 0 min 0,000 mm 3,9 UV-I 808 W/m 4,4 C 9,8 C 14,5 km/h (3 Bft) 98 %
02.04.2020 12:50 9,8 C 69 % 1013,4 hPa 0,0 l/m 0 min 0 min 0,000 mm 3,4 UV-I 418 W/m 4,4 C 9,8 C 12,9 km/h (3 Bft) 98 %
02.04.2020 12:48 9,9 C 70 % 1013,5 hPa 0,0 l/m 2 min 0 min 0,000 mm 3,1 UV-I 520 W/m 4,7 C 7,8 C 16,1 km/h (3 Bft) 96 %
02.04.2020 12:46 9,9 C 70 % 1013,4 hPa 0,0 l/m 2 min 0 min 0,000 mm 3,3 UV-I 456 W/m 4,7 C 9,9 C 14,5 km/h (3 Bft) 98 %
02.04.2020 12:44 9,9 C 70 % 1013,4 hPa 0,0 l/m 2 min 0 min 0,000 mm 3,4 UV-I 523 W/m 4,7 C 9,9 C 6,4 km/h (2 Bft) 96 %
02.04.2020 12:42 9,8 C 71 % 1013,5 hPa 0,0 l/m 2 min 0 min 0,000 mm 3,8 UV-I 792 W/m 4,8 C 9,4 C 16,1 km/h (3 Bft) 98 %
02.04.2020 12:40 9,8 C 70 % 1013,4 hPa 0,0 l/m 2 min 0 min 0,000 mm 4,0 UV-I 813 W/m 4,6 C 8,0 C 16,1 km/h (3 Bft) 98 %
02.04.2020 12:38 9,7 C 70 % 1013,4 hPa 0,0 l/m 2 min 0 min 0,000 mm 3,8 UV-I 814 W/m 4,5 C 9,0 C 16,1 km/h (3 Bft) 96 %
02.04.2020 12:36 9,7 C 71 % 1013,4 hPa 0,0 l/m 2 min 0 min 0,000 mm 4,0 UV-I 810 W/m 4,7 C 9,7 C 12,9 km/h (3 Bft) 91 %
02.04.2020 12:34 9,4 C 71 % 1013,5 hPa 0,0 l/m 2 min 0 min 0,000 mm 3,9 UV-I 817 W/m 4,4 C 9,4 C 12,9 km/h (3 Bft) 94 %
02.04.2020 12:32 9,3 C 71 % 1013,4 hPa 0,0 l/m 2 min 0 min 0,000 mm 3,6 UV-I 863 W/m 4,3 C 9,3 C 8,0 km/h (2 Bft) 96 %
02.04.2020 12:30 9,2 C 72 % 1013,5 hPa 0,0 l/m 2 min 0 min 0,000 mm 3,5 UV-I 683 W/m 4,4 C 9,2 C 12,9 km/h (3 Bft) 94 %
02.04.2020 12:28 9,1 C 73 % 1013,4 hPa 0,0 l/m 2 min 0 min 0,000 mm 3,4 UV-I 498 W/m 4,5 C 7,9 C 14,5 km/h (3 Bft) 94 %
02.04.2020 12:26 8,9 C 72 % 1013,5 hPa 0,0 l/m 2 min 0 min 0,000 mm 3,5 UV-I 489 W/m 4,1 C 8,9 C 14,5 km/h (3 Bft) 96 %
02.04.2020 12:24 9,0 C 72 % 1013,6 hPa 0,0 l/m 2 min 0 min 0,000 mm 3,1 UV-I 437 W/m 4,2 C 9,0 C 12,9 km/h (3 Bft) 96 %
02.04.2020 12:20 9,1 C 71 % 1013,6 hPa 0,0 l/m 0 min 0 min 0,000 mm 2,9 UV-I 353 W/m 4,1 C 9,1 C 11,3 km/h (2 Bft) 96 %
02.04.2020 12:18 9,1 C 70 % 1013,6 hPa 0,0 l/m 0 min 0 min 0,000 mm 2,8 UV-I 350 W/m 3,9 C 9,1 C 16,1 km/h (3 Bft) 98 %
02.04.2020 12:16 9,1 C 70 % 1013,6 hPa 0,0 l/m 0 min 0 min 0,000 mm 2,7 UV-I 318 W/m 3,9 C 9,1 C 16,1 km/h (3 Bft) 96 %
02.04.2020 12:14 9,1 C 70 % 1013,7 hPa 0,0 l/m 0 min 0 min 0,000 mm 2,6 UV-I 303 W/m 3,9 C 9,1 C 12,9 km/h (3 Bft) 96 %
02.04.2020 12:12 9,1 C 70 % 1013,7 hPa 0,0 l/m 0 min 0 min 0,000 mm 2,7 UV-I 350 W/m 3,9 C 8,1 C 14,5 km/h (3 Bft) 98 %
02.04.2020 12:10 9,1 C 70 % 1013,7 hPa 0,0 l/m 2 min 0 min 0,000 mm 2,8 UV-I 546 W/m 3,9 C 9,1 C 17,7 km/h (3 Bft) 96 %
02.04.2020 12:08 8,9 C 70 % 1013,8 hPa 0,0 l/m 2 min 0 min 0,000 mm 3,2 UV-I 768 W/m 3,7 C 8,9 C 12,9 km/h (3 Bft) 96 %
02.04.2020 12:06 8,9 C 69 % 1013,9 hPa 0,0 l/m 2 min 0 min 0,000 mm 3,1 UV-I 419 W/m 3,5 C 8,9 C 12,9 km/h (3 Bft) 98 %
02.04.2020 12:04 8,9 C 70 % 1013,9 hPa 0,0 l/m 2 min 0 min 0,280 mm 3,2 UV-I 706 W/m 3,7 C 8,9 C 14,5 km/h (3 Bft) 97 %
02.04.2020 12:00 8,8 C 70 % 1013,9 hPa 0,0 l/m 2 min 0 min 0,000 mm 3,2 UV-I 710 W/m 3,6 C 7,9 C 14,5 km/h (3 Bft) 100 %
02.04.2020 11:58 8,8 C 70 % 1013,9 hPa 0,0 l/m 2 min 0 min 0,000 mm 3,2 UV-I 514 W/m 3,6 C 8,8 C 14,5 km/h (3 Bft) 96 %
02.04.2020 11:56 8,9 C 69 % 1014,0 hPa 0,0 l/m 0 min 0 min 0,000 mm 2,9 UV-I 360 W/m 3,5 C 8,9 C 14,5 km/h (3 Bft) 100 %
02.04.2020 11:54 8,9 C 70 % 1014,0 hPa 0,0 l/m 0 min 0 min 0,000 mm 2,8 UV-I 398 W/m 3,7 C 8,9 C 14,5 km/h (3 Bft) 98 %
02.04.2020 11:52 8,9 C 70 % 1014,0 hPa 0,0 l/m 2 min 0 min 0,000 mm 2,8 UV-I 710 W/m 3,7 C 8,9 C 12,9 km/h (3 Bft) 98 %
02.04.2020 11:50 8,8 C 71 % 1014,0 hPa 0,0 l/m 2 min 0 min 0,000 mm 3,1 UV-I 764 W/m 3,8 C 8,7 C 12,9 km/h (3 Bft) 96 %
02.04.2020 11:48 8,7 C 71 % 1014,0 hPa 0,0 l/m 2 min 0 min 0,000 mm 3,0 UV-I 778 W/m 3,7 C 8,7 C 9,7 km/h (2 Bft) 98 %
02.04.2020 11:46 8,7 C 72 % 1014,0 hPa 0,0 l/m 2 min 0 min 0,000 mm 2,8 UV-I 655 W/m 3,9 C 8,7 C 12,9 km/h (3 Bft) 98 %
02.04.2020 11:44 8,6 C 72 % 1014,0 hPa 0,0 l/m 2 min 0 min 0,000 mm 2,7 UV-I 616 W/m 3,8 C 8,6 C 14,5 km/h (3 Bft) 98 %
02.04.2020 11:42 8,4 C 71 % 1014,0 hPa 0,0 l/m 2 min 0 min 0,000 mm 2,8 UV-I 516 W/m 3,5 C 8,4 C 14,5 km/h (3 Bft) 98 %
02.04.2020 11:40 8,5 C 71 % 1014,0 hPa 0,0 l/m 2 min 0 min 0,000 mm 2,7 UV-I 400 W/m 3,5 C 8,4 C 12,9 km/h (3 Bft) 94 %
02.04.2020 11:38 8,4 C 70 % 1014,1 hPa 0,0 l/m 2 min 0 min 0,000 mm 2,8 UV-I 459 W/m 3,3 C 8,4 C 16,1 km/h (3 Bft) 98 %
02.04.2020 11:36 8,5 C 70 % 1014,1 hPa 0,0 l/m 2 min 0 min 0,000 mm 3,0 UV-I 677 W/m 3,3 C 8,5 C 11,3 km/h (2 Bft) 98 %
02.04.2020 11:34 8,6 C 70 % 1014,1 hPa 0,0 l/m 2 min 0 min 0,000 mm 3,0 UV-I 640 W/m 3,4 C 8,6 C 8,0 km/h (2 Bft) 98 %
02.04.2020 11:32 8,7 C 71 % 1014,1 hPa 0,0 l/m 2 min 0 min 0,000 mm 3,1 UV-I 638 W/m 3,7 C 8,7 C 12,9 km/h (3 Bft) 96 %
02.04.2020 11:30 8,7 C 71 % 1014,1 hPa 0,0 l/m 2 min 0 min 0,000 mm 3,0 UV-I 591 W/m 3,7 C 7,7 C 14,5 km/h (3 Bft) 98 %
02.04.2020 11:28 8,7 C 71 % 1014,1 hPa 0,0 l/m 2 min 0 min 0,000 mm 3,0 UV-I 609 W/m 3,7 C 8,7 C 12,9 km/h (3 Bft) 98 %
02.04.2020 11:26 8,7 C 72 % 1014,2 hPa 0,0 l/m 2 min 0 min 0,000 mm 2,9 UV-I 626 W/m 3,9 C 8,7 C 12,9 km/h (3 Bft) 89 %
02.04.2020 11:24 8,6 C 73 % 1014,1 hPa 0,0 l/m 2 min 0 min 0,000 mm 2,9 UV-I 597 W/m 4,0 C 7,6 C 14,5 km/h (3 Bft) 100 %
02.04.2020 11:22 8,4 C 72 % 1014,2 hPa 0,0 l/m 2 min 0 min 0,000 mm 2,9 UV-I 595 W/m 3,7 C 8,4 C 12,9 km/h (3 Bft) 98 %
02.04.2020 11:20 8,4 C 72 % 1014,3 hPa 0,0 l/m 2 min 0 min 0,000 mm 2,9 UV-I 603 W/m 3,7 C 8,0 C 14,5 km/h (3 Bft) 98 %
02.04.2020 11:18 8,4 C 72 % 1014,2 hPa 0,0 l/m 2 min 0 min 0,000 mm 2,9 UV-I 608 W/m 3,7 C 8,4 C 12,9 km/h (3 Bft) 100 %
02.04.2020 11:16 8,5 C 73 % 1014,2 hPa 0,0 l/m 2 min 0 min 0,000 mm 2,9 UV-I 600 W/m 3,9 C 7,1 C 16,1 km/h (3 Bft) 98 %
02.04.2020 11:14 8,4 C 73 % 1014,2 hPa 0,0 l/m 2 min 0 min 0,000 mm 2,8 UV-I 586 W/m 3,8 C 8,1 C 14,5 km/h (3 Bft) 98 %
02.04.2020 11:12 8,3 C 73 % 1014,2 hPa 0,0 l/m 2 min 0 min 0,000 mm 2,8 UV-I 585 W/m 3,8 C 8,3 C 6,4 km/h (2 Bft) 98 %
02.04.2020 11:10 8,2 C 73 % 1014,2 hPa 0,0 l/m 2 min 0 min 0,000 mm 2,8 UV-I 577 W/m 3,7 C 8,2 C 9,7 km/h (2 Bft) 98 %
02.04.2020 11:08 8,2 C 72 % 1014,2 hPa 0,0 l/m 2 min 0 min 0,000 mm 2,8 UV-I 571 W/m 3,5 C 8,1 C 11,3 km/h (2 Bft) 98 %
02.04.2020 11:06 8,2 C 73 % 1014,2 hPa 0,0 l/m 2 min 0 min 0,000 mm 2,8 UV-I 576 W/m 3,7 C 8,2 C 14,5 km/h (3 Bft) 98 %
02.04.2020 11:04 8,2 C 72 % 1014,2 hPa 0,0 l/m 2 min 0 min 0,228 mm 2,7 UV-I 566 W/m 3,5 C 5,6 C 17,7 km/h (3 Bft) 97 %
02.04.2020 11:00 8,3 C 72 % 1014,2 hPa 0,0 l/m 2 min 0 min 0,000 mm 2,7 UV-I 561 W/m 3,6 C 7,4 C 14,5 km/h (3 Bft) 98 %
02.04.2020 10:58 8,3 C 72 % 1014,2 hPa 0,0 l/m 2 min 0 min 0,000 mm 2,6 UV-I 556 W/m 3,6 C 8,3 C 14,5 km/h (3 Bft) 98 %
02.04.2020 10:56 8,3 C 72 % 1014,2 hPa 0,0 l/m 2 min 0 min 0,000 mm 2,6 UV-I 551 W/m 3,6 C 8,2 C 12,9 km/h (3 Bft) 96 %
02.04.2020 10:54 8,3 C 73 % 1014,2 hPa 0,0 l/m 2 min 0 min 0,000 mm 2,6 UV-I 546 W/m 3,8 C 8,3 C 14,5 km/h (3 Bft) 91 %
02.04.2020 10:52 8,2 C 72 % 1014,3 hPa 0,0 l/m 2 min 0 min 0,000 mm 2,5 UV-I 542 W/m 3,5 C 8,2 C 12,9 km/h (3 Bft) 98 %
02.04.2020 10:50 8,2 C 73 % 1014,2 hPa 0,0 l/m 2 min 0 min 0,000 mm 2,5 UV-I 538 W/m 3,7 C 8,2 C 12,9 km/h (3 Bft) 96 %
02.04.2020 10:48 8,2 C 73 % 1014,2 hPa 0,0 l/m 2 min 0 min 0,000 mm 2,5 UV-I 535 W/m 3,7 C 8,2 C 8,0 km/h (2 Bft) 98 %
02.04.2020 10:46 8,1 C 73 % 1014,2 hPa 0,0 l/m 2 min 0 min 0,000 mm 2,4 UV-I 529 W/m 3,6 C 8,1 C 12,9 km/h (3 Bft) 100 %
02.04.2020 10:44 8,0 C 72 % 1014,2 hPa 0,0 l/m 2 min 0 min 0,000 mm 2,4 UV-I 526 W/m 3,3 C 8,0 C 12,9 km/h (3 Bft) 98 %
02.04.2020 10:42 8,1 C 72 % 1014,2 hPa 0,0 l/m 2 min 0 min 0,000 mm 2,4 UV-I 520 W/m 3,4 C 8,1 C 9,7 km/h (2 Bft) 98 %
02.04.2020 10:40 8,1 C 72 % 1014,2 hPa 0,0 l/m 2 min 0 min 0,000 mm 2,3 UV-I 517 W/m 3,4 C 8,1 C 11,3 km/h (2 Bft) 100 %
02.04.2020 10:38 8,1 C 72 % 1014,2 hPa 0,0 l/m 2 min 0 min 0,000 mm 2,3 UV-I 512 W/m 3,4 C 7,2 C 12,9 km/h (3 Bft) 100 %
02.04.2020 10:36 8,1 C 72 % 1014,2 hPa 0,0 l/m 2 min 0 min 0,000 mm 2,3 UV-I 508 W/m 3,4 C 8,1 C 9,7 km/h (2 Bft) 100 %
02.04.2020 10:34 8,0 C 72 % 1014,2 hPa 0,0 l/m 2 min 0 min 0,000 mm 2,2 UV-I 503 W/m 3,3 C 8,0 C 8,0 km/h (2 Bft) 98 %
02.04.2020 10:32 7,9 C 72 % 1014,1 hPa 0,0 l/m 2 min 0 min 0,000 mm 2,2 UV-I 497 W/m 3,2 C 7,9 C 8,0 km/h (2 Bft) 98 %
02.04.2020 10:30 7,8 C 72 % 1014,2 hPa 0,0 l/m 2 min 0 min 0,000 mm 2,2 UV-I 493 W/m 3,1 C 7,8 C 6,4 km/h (2 Bft) 98 %
02.04.2020 10:28 7,7 C 72 % 1014,1 hPa 0,0 l/m 2 min 0 min 0,000 mm 2,1 UV-I 488 W/m 3,0 C 7,7 C 6,4 km/h (2 Bft) 96 %
02.04.2020 10:26 7,8 C 72 % 1014,1 hPa 0,0 l/m 2 min 0 min 0,000 mm 2,1 UV-I 484 W/m 3,1 C 7,8 C 6,4 km/h (2 Bft) 96 %
02.04.2020 10:24 7,6 C 73 % 1014,1 hPa 0,0 l/m 2 min 0 min 0,000 mm 2,1 UV-I 481 W/m 3,1 C 7,6 C 3,2 km/h (1 Bft) 96 %
02.04.2020 10:22 7,5 C 73 % 1014,2 hPa 0,0 l/m 2 min 0 min 0,000 mm 2,1 UV-I 475 W/m 3,0 C 7,5 C 0,0 km/h (0 Bft) 98 %
02.04.2020 10:20 7,3 C 75 % 1014,1 hPa 0,0 l/m 2 min 0 min 0,000 mm 2,0 UV-I 470 W/m 3,2 C 7,3 C 0,0 km/h (0 Bft) 91 %
02.04.2020 10:18 7,2 C 75 % 1014,1 hPa 0,0 l/m 2 min 0 min 0,000 mm 2,0 UV-I 465 W/m 3,1 C 7,2 C 0,0 km/h (0 Bft) 96 %
02.04.2020 10:16 7,1 C 77 % 1014,1 hPa 0,0 l/m 2 min 0 min 0,000 mm 2,0 UV-I 461 W/m 3,3 C 7,1 C 6,4 km/h (2 Bft) 98 %
02.04.2020 10:14 6,8 C 77 % 1014,1 hPa 0,0 l/m 2 min 0 min 0,000 mm 1,9 UV-I 455 W/m 3,1 C 6,8 C 0,0 km/h (0 Bft) 96 %
02.04.2020 10:12 6,7 C 78 % 1014,0 hPa 0,0 l/m 2 min 0 min 0,000 mm 1,9 UV-I 449 W/m 3,1 C 6,7 C 0,0 km/h (0 Bft) 96 %
02.04.2020 10:10 6,3 C 79 % 1014,1 hPa 0,0 l/m 2 min 0 min 0,000 mm 1,9 UV-I 444 W/m 2,9 C 6,3 C 4,8 km/h (1 Bft) 96 %
02.04.2020 10:08 6,1 C 79 % 1014,0 hPa 0,0 l/m 2 min 0 min 0,000 mm 1,8 UV-I 440 W/m 2,7 C 6,1 C 4,8 km/h (1 Bft) 94 %
02.04.2020 10:06 6,0 C 79 % 1014,0 hPa 0,0 l/m 2 min 0 min 0,000 mm 1,8 UV-I 436 W/m 2,6 C 6,0 C 0,0 km/h (0 Bft) 95 %
02.04.2020 10:04 5,9 C 79 % 1014,0 hPa 0,0 l/m 2 min 0 min 0,127 mm 1,8 UV-I 428 W/m 2,5 C 5,9 C 1,6 km/h (1 Bft) 93 %
02.04.2020 10:00 5,8 C 80 % 1014,1 hPa 0,0 l/m 2 min 0 min 0,000 mm 1,7 UV-I 421 W/m 2,6 C 5,8 C 0,0 km/h (0 Bft) 94 %
02.04.2020 09:58 5,7 C 81 % 1014,1 hPa 0,0 l/m 2 min 0 min 0,000 mm 1,7 UV-I 417 W/m 2,7 C 5,7 C 1,6 km/h (1 Bft) 96 %
02.04.2020 09:56 5,6 C 81 % 1014,1 hPa 0,0 l/m 2 min 0 min 0,000 mm 1,7 UV-I 412 W/m 2,6 C 5,6 C 0,0 km/h (0 Bft) 96 %
02.04.2020 09:54 5,5 C 82 % 1014,1 hPa 0,0 l/m 2 min 0 min 0,000 mm 1,6 UV-I 408 W/m 2,7 C 5,5 C 0,0 km/h (0 Bft) 89 %
02.04.2020 09:52 5,4 C 83 % 1014,2 hPa 0,0 l/m 2 min 0 min 0,000 mm 1,6 UV-I 405 W/m 2,7 C 5,4 C 0,0 km/h (0 Bft) 94 %
02.04.2020 09:50 5,3 C 84 % 1014,2 hPa 0,0 l/m 2 min 0 min 0,000 mm 1,6 UV-I 399 W/m 2,8 C 5,3 C 0,0 km/h (0 Bft) 94 %
02.04.2020 09:48 5,1 C 83 % 1014,2 hPa 0,0 l/m 2 min 0 min 0,000 mm 1,6 UV-I 394 W/m 2,5 C 5,1 C 0,0 km/h (0 Bft) 87 %
02.04.2020 09:46 4,9 C 84 % 1014,1 hPa 0,0 l/m 2 min 0 min 0,000 mm 1,5 UV-I 387 W/m 2,4 C 4,9 C 0,0 km/h (0 Bft) 91 %
02.04.2020 09:44 4,8 C 85 % 1014,2 hPa 0,0 l/m 2 min 0 min 0,000 mm 1,5 UV-I 382 W/m 2,5 C 4,8 C 0,0 km/h (0 Bft) 94 %
02.04.2020 09:42 4,7 C 85 % 1014,2 hPa 0,0 l/m 2 min 0 min 0,000 mm 1,5 UV-I 376 W/m 2,4 C 4,7 C 0,0 km/h (0 Bft) 94 %
02.04.2020 09:40 4,5 C 86 % 1014,2 hPa 0,0 l/m 2 min 0 min 0,000 mm 1,5 UV-I 371 W/m 2,4 C 4,5 C 0,0 km/h (0 Bft) 96 %
02.04.2020 09:38 4,3 C 86 % 1014,3 hPa 0,0 l/m 2 min 0 min 0,000 mm 1,4 UV-I 364 W/m 2,2 C 4,3 C 0,0 km/h (0 Bft) 94 %
02.04.2020 09:36 4,0 C 87 % 1014,3 hPa 0,0 l/m 2 min 0 min 0,000 mm 1,4 UV-I 359 W/m 2,0 C 4,0 C 0,0 km/h (0 Bft) 96 %
02.04.2020 09:34 3,8 C 86 % 1014,3 hPa 0,0 l/m 2 min 0 min 0,000 mm 1,4 UV-I 353 W/m 1,7 C 3,8 C 1,6 km/h (1 Bft) 96 %
02.04.2020 09:32 3,7 C 86 % 1014,3 hPa 0,0 l/m 2 min 0 min 0,000 mm 1,3 UV-I 348 W/m 1,6 C 3,7 C 3,2 km/h (1 Bft) 94 %
02.04.2020 09:30 3,6 C 87 % 1014,3 hPa 0,0 l/m 2 min 0 min 0,000 mm 1,3 UV-I 343 W/m 1,6 C 3,6 C 4,8 km/h (1 Bft) 94 %
02.04.2020 09:28 3,4 C 87 % 1014,3 hPa 0,0 l/m 2 min 0 min 0,000 mm 1,3 UV-I 338 W/m 1,4 C 3,4 C 3,2 km/h (1 Bft) 96 %
02.04.2020 09:26 3,3 C 88 % 1014,3 hPa 0,0 l/m 2 min 0 min 0,000 mm 1,3 UV-I 332 W/m 1,5 C 3,3 C 3,2 km/h (1 Bft) 94 %
02.04.2020 09:24 3,2 C 88 % 1014,3 hPa 0,0 l/m 2 min 0 min 0,000 mm 1,3 UV-I 327 W/m 1,4 C 3,2 C 3,2 km/h (1 Bft) 93 %
02.04.2020 09:22 2,9 C 88 % 1014,3 hPa 0,0 l/m 2 min 0 min 0,000 mm 1,2 UV-I 322 W/m 1,1 C 2,9 C 4,8 km/h (1 Bft) 96 %
02.04.2020 09:20 2,8 C 88 % 1014,3 hPa 0,0 l/m 2 min 0 min 0,000 mm 1,2 UV-I 316 W/m 1,0 C 2,8 C 4,8 km/h (1 Bft) 98 %
02.04.2020 09:18 2,6 C 88 % 1014,4 hPa 0,0 l/m 2 min 0 min 0,000 mm 1,2 UV-I 308 W/m 0,8 C 2,6 C 6,4 km/h (2 Bft) 100 %
02.04.2020 09:16 2,4 C 88 % 1014,4 hPa 0,0 l/m 2 min 0 min 0,000 mm 1,2 UV-I 304 W/m 0,6 C 2,4 C 6,4 km/h (2 Bft) 100 %
02.04.2020 09:14 2,3 C 88 % 1014,4 hPa 0,0 l/m 2 min 0 min 0,000 mm 1,2 UV-I 300 W/m 0,5 C 2,3 C 6,4 km/h (2 Bft) 98 %
02.04.2020 09:12 2,2 C 88 % 1014,4 hPa 0,0 l/m 2 min 0 min 0,000 mm 1,1 UV-I 294 W/m 0,4 C 2,2 C 8,0 km/h (2 Bft) 98 %
02.04.2020 09:10 2,2 C 88 % 1014,4 hPa 0,0 l/m 2 min 0 min 0,000 mm 1,1 UV-I 290 W/m 0,4 C 2,2 C 3,2 km/h (1 Bft) 98 %
02.04.2020 09:08 2,0 C 88 % 1014,5 hPa 0,0 l/m 2 min 0 min 0,000 mm 1,1 UV-I 285 W/m 0,2 C 2,0 C 1,6 km/h (1 Bft) 100 %
02.04.2020 09:06 1,9 C 88 % 1014,5 hPa 0,0 l/m 2 min 0 min 0,000 mm 1,1 UV-I 280 W/m 0,1 C 1,9 C 0,0 km/h (0 Bft) 98 %
02.04.2020 09:04 1,8 C 88 % 1014,5 hPa 0,0 l/m 2 min 0 min 0,051 mm 1,1 UV-I 274 W/m 0,0 C 1,8 C 6,4 km/h (2 Bft) 100 %
02.04.2020 09:00 1,5 C 88 % 1014,5 hPa 0,0 l/m 2 min 0 min 0,000 mm 1,0 UV-I 264 W/m -0,3 C 1,5 C 6,4 km/h (2 Bft) 98 %
02.04.2020 08:58 1,4 C 88 % 1014,5 hPa 0,0 l/m 0 min 0 min 0,000 mm 1,0 UV-I 147 W/m -0,4 C 1,4 C 8,0 km/h (2 Bft) 98 %
02.04.2020 08:56 1,3 C 88 % 1014,5 hPa 0,0 l/m 0 min 0 min 0,000 mm 1,0 UV-I 176 W/m -0,5 C 1,3 C 4,8 km/h (1 Bft) 98 %
02.04.2020 08:54 1,3 C 88 % 1014,5 hPa 0,0 l/m 2 min 0 min 0,000 mm 0,9 UV-I 182 W/m -0,5 C 1,3 C 4,8 km/h (1 Bft) 98 %
02.04.2020 08:52 1,3 C 88 % 1014,5 hPa 0,0 l/m 2 min 0 min 0,000 mm 0,9 UV-I 189 W/m -0,5 C 1,3 C 6,4 km/h (2 Bft) 96 %
02.04.2020 08:50 1,2 C 88 % 1014,5 hPa 0,0 l/m 2 min 0 min 0,000 mm 0,9 UV-I 180 W/m -0,6 C 1,2 C 3,2 km/h (1 Bft) 100 %
02.04.2020 08:48 1,1 C 88 % 1014,5 hPa 0,0 l/m 0 min 0 min 0,000 mm 0,9 UV-I 151 W/m -0,7 C 1,1 C 3,2 km/h (1 Bft) 98 %
02.04.2020 08:46 1,0 C 89 % 1014,6 hPa 0,0 l/m 2 min 0 min 0,000 mm 0,9 UV-I 200 W/m -0,6 C 1,0 C 6,4 km/h (2 Bft) 100 %
02.04.2020 08:44 0,9 C 88 % 1014,6 hPa 0,0 l/m 2 min 0 min 0,000 mm 0,9 UV-I 241 W/m -0,9 C 0,9 C 1,6 km/h (1 Bft) 98 %
02.04.2020 08:42 0,8 C 88 % 1014,6 hPa 0,0 l/m 2 min 0 min 0,000 mm 0,9 UV-I 230 W/m -1,0 C 0,8 C 4,8 km/h (1 Bft) 100 %
02.04.2020 08:40 0,7 C 88 % 1014,6 hPa 0,0 l/m 2 min 0 min 0,000 mm 0,8 UV-I 218 W/m -1,1 C 0,7 C 4,8 km/h (1 Bft) 98 %
02.04.2020 08:38 0,6 C 88 % 1014,6 hPa 0,0 l/m 2 min 0 min 0,000 mm 0,8 UV-I 205 W/m -1,2 C 0,6 C 6,4 km/h (2 Bft) 100 %
02.04.2020 08:36 0,5 C 88 % 1014,6 hPa 0,0 l/m 2 min 0 min 0,000 mm 0,8 UV-I 193 W/m -1,3 C 0,5 C 6,4 km/h (2 Bft) 100 %
02.04.2020 08:34 0,4 C 88 % 1014,6 hPa 0,0 l/m 2 min 0 min 0,000 mm 0,8 UV-I 183 W/m -1,3 C 0,4 C 6,4 km/h (2 Bft) 96 %
02.04.2020 08:32 0,4 C 88 % 1014,6 hPa 0,0 l/m 2 min 0 min 0,000 mm 0,8 UV-I 174 W/m -1,3 C 0,4 C 8,0 km/h (2 Bft) 98 %
02.04.2020 08:30 0,3 C 88 % 1014,6 hPa 0,0 l/m 2 min 0 min 0,000 mm 0,8 UV-I 171 W/m -1,4 C 0,3 C 6,4 km/h (2 Bft) 100 %
02.04.2020 08:28 0,3 C 88 % 1014,5 hPa 0,0 l/m 2 min 0 min 0,000 mm 0,8 UV-I 154 W/m -1,4 C 0,3 C 8,0 km/h (2 Bft) 98 %
02.04.2020 08:26 0,2 C 88 % 1014,5 hPa 0,0 l/m 2 min 0 min 0,000 mm 0,7 UV-I 139 W/m -1,5 C 0,2 C 9,7 km/h (2 Bft) 98 %
02.04.2020 08:24 0,2 C 88 % 1014,6 hPa 0,0 l/m 2 min 0 min 0,000 mm 0,7 UV-I 161 W/m -1,5 C 0,2 C 8,0 km/h (2 Bft) 91 %
02.04.2020 08:22 0,1 C 88 % 1014,5 hPa 0,0 l/m 2 min 0 min 0,000 mm 0,7 UV-I 159 W/m -1,6 C 0,1 C 11,3 km/h (2 Bft) 100 %
02.04.2020 08:20 0,1 C 89 % 1014,5 hPa 0,0 l/m 2 min 0 min 0,000 mm 0,7 UV-I 154 W/m -1,5 C 0,1 C 9,7 km/h (2 Bft) 96 %
02.04.2020 08:18 0,0 C 89 % 1014,6 hPa 0,0 l/m 2 min 0 min 0,000 mm 0,7 UV-I 141 W/m -1,6 C 0,0 C 6,4 km/h (2 Bft) 94 %
02.04.2020 08:16 -0,1 C 89 % 1014,5 hPa 0,0 l/m 2 min 0 min 0,000 mm 0,7 UV-I 133 W/m -1,7 C -0,1 C 6,4 km/h (2 Bft) 96 %
02.04.2020 08:14 -0,1 C 89 % 1014,6 hPa 0,0 l/m 2 min 0 min 0,000 mm 0,7 UV-I 129 W/m -1,7 C -0,1 C 6,4 km/h (2 Bft) 96 %
02.04.2020 08:12 -0,2 C 88 % 1014,6 hPa 0,0 l/m 2 min 0 min 0,000 mm 0,7 UV-I 123 W/m -1,9 C -0,2 C 6,4 km/h (2 Bft) 94 %
02.04.2020 08:10 -0,2 C 88 % 1014,6 hPa 0,0 l/m 2 min 0 min 0,000 mm 0,7 UV-I 114 W/m -1,9 C -0,2 C 8,0 km/h (2 Bft) 96 %
02.04.2020 08:08 -0,2 C 88 % 1014,6 hPa 0,0 l/m 2 min 0 min 0,000 mm 0,6 UV-I 100 W/m -1,9 C -0,7 C 9,7 km/h (2 Bft) 96 %
02.04.2020 08:06 -0,3 C 89 % 1014,6 hPa 0,0 l/m 0 min 0 min 0,000 mm 0,6 UV-I 83 W/m -1,9 C -0,3 C 4,8 km/h (1 Bft) 96 %
02.04.2020 08:04 -0,3 C 89 % 1014,5 hPa 0,0 l/m 2 min 0 min 0,026 mm 0,6 UV-I 92 W/m -1,9 C -0,3 C 6,4 km/h (2 Bft) 94 %
02.04.2020 08:00 -0,5 C 89 % 1014,5 hPa 0,0 l/m 0 min 0 min 0,000 mm 0,6 UV-I 85 W/m -2,1 C -0,5 C 6,4 km/h (2 Bft) 96 %
02.04.2020 07:58 -0,5 C 88 % 1014,5 hPa 0,0 l/m 0 min 0 min 0,000 mm 0,6 UV-I 78 W/m -2,2 C -0,5 C 4,8 km/h (1 Bft) 94 %
02.04.2020 07:56 -0,6 C 88 % 1014,5 hPa 0,0 l/m 0 min 0 min 0,000 mm 0,6 UV-I 73 W/m -2,3 C -0,6 C 6,4 km/h (2 Bft) 96 %
02.04.2020 07:54 -0,6 C 88 % 1014,4 hPa 0,0 l/m 0 min 0 min 0,000 mm 0,6 UV-I 69 W/m -2,3 C -0,6 C 6,4 km/h (2 Bft) 94 %
02.04.2020 07:52 -0,7 C 88 % 1014,4 hPa 0,0 l/m 0 min 0 min 0,000 mm 0,6 UV-I 64 W/m -2,4 C -0,7 C 6,4 km/h (2 Bft) 94 %
02.04.2020 07:50 -0,7 C 88 % 1014,4 hPa 0,0 l/m 0 min 0 min 0,000 mm 0,6 UV-I 60 W/m -2,4 C -0,7 C 8,0 km/h (2 Bft) 100 %
02.04.2020 07:48 -0,7 C 88 % 1014,4 hPa 0,0 l/m 0 min 0 min 0,000 mm 0,6 UV-I 54 W/m -2,4 C -0,7 C 6,4 km/h (2 Bft) 98 %
02.04.2020 07:46 -0,8 C 88 % 1014,4 hPa 0,0 l/m 0 min 0 min 0,000 mm 0,6 UV-I 50 W/m -2,5 C -0,8 C 4,8 km/h (1 Bft) 100 %
02.04.2020 07:44 -0,8 C 88 % 1014,4 hPa 0,0 l/m 0 min 0 min 0,000 mm 0,6 UV-I 46 W/m -2,5 C -0,8 C 8,0 km/h (2 Bft) 100 %
02.04.2020 07:42 -0,8 C 88 % 1014,3 hPa 0,0 l/m 0 min 0 min 0,000 mm 0,0 UV-I 42 W/m -2,5 C -0,8 C 8,0 km/h (2 Bft) 100 %
02.04.2020 07:40 -0,8 C 88 % 1014,3 hPa 0,0 l/m 0 min 0 min 0,000 mm 0,0 UV-I 40 W/m -2,5 C -0,8 C 9,7 km/h (2 Bft) 96 %
02.04.2020 07:38 -0,8 C 88 % 1014,3 hPa 0,0 l/m 0 min 0 min 0,000 mm 0,0 UV-I 35 W/m -2,5 C -1,1 C 9,7 km/h (2 Bft) 100 %
02.04.2020 07:36 -0,8 C 88 % 1014,3 hPa 0,0 l/m 0 min 0 min 0,000 mm 0,0 UV-I 33 W/m -2,5 C -0,8 C 8,0 km/h (2 Bft) 98 %
02.04.2020 07:34 -0,8 C 88 % 1014,3 hPa 0,0 l/m 0 min 0 min 0,000 mm 0,0 UV-I 30 W/m -2,5 C -0,8 C 9,7 km/h (2 Bft) 100 %
02.04.2020 07:32 -0,8 C 88 % 1014,3 hPa 0,0 l/m 0 min 0 min 0,000 mm 0,0 UV-I 28 W/m -2,5 C -0,8 C 8,0 km/h (2 Bft) 100 %
02.04.2020 07:30 -0,8 C 88 % 1014,2 hPa 0,0 l/m 0 min 0 min 0,000 mm 0,0 UV-I 25 W/m -2,5 C -0,8 C 6,4 km/h (2 Bft) 100 %
02.04.2020 07:28 -0,8 C 88 % 1014,2 hPa 0,0 l/m 0 min 0 min 0,000 mm 0,0 UV-I 23 W/m -2,5 C -0,8 C 9,7 km/h (2 Bft) 100 %
02.04.2020 07:26 -0,8 C 88 % 1014,2 hPa 0,0 l/m 0 min 0 min 0,000 mm 0,0 UV-I 20 W/m -2,5 C -0,8 C 8,0 km/h (2 Bft) 100 %
02.04.2020 07:24 -0,8 C 88 % 1014,3 hPa 0,0 l/m 0 min 0 min 0,000 mm 0,0 UV-I 18 W/m -2,5 C -0,8 C 8,0 km/h (2 Bft) 100 %
02.04.2020 07:22 -0,7 C 88 % 1014,3 hPa 0,0 l/m 0 min 0 min 0,000 mm 0,0 UV-I 16 W/m -2,4 C -0,7 C 9,7 km/h (2 Bft) 100 %
02.04.2020 07:20 -0,7 C 88 % 1014,3 hPa 0,0 l/m 0 min 0 min 0,000 mm 0,0 UV-I 14 W/m -2,4 C -0,7 C 8,0 km/h (2 Bft) 100 %
02.04.2020 07:18 -0,8 C 88 % 1014,3 hPa 0,0 l/m 0 min 0 min 0,000 mm 0,0 UV-I 14 W/m -2,5 C -1,0 C 11,3 km/h (2 Bft) 100 %
02.04.2020 07:16 -0,7 C 88 % 1014,4 hPa 0,0 l/m 0 min 0 min 0,000 mm 0,0 UV-I 12 W/m -2,4 C -0,7 C 9,7 km/h (2 Bft) 98 %
02.04.2020 07:14 -0,7 C 88 % 1014,4 hPa 0,0 l/m 0 min 0 min 0,000 mm 0,0 UV-I 11 W/m -2,4 C -0,7 C 8,0 km/h (2 Bft) 98 %
02.04.2020 07:12 -0,7 C 88 % 1014,4 hPa 0,0 l/m 0 min 0 min 0,000 mm 0,0 UV-I 9 W/m -2,4 C -1,4 C 11,3 km/h (2 Bft) 98 %
02.04.2020 07:10 -0,7 C 88 % 1014,4 hPa 0,0 l/m 0 min 0 min 0,000 mm 0,0 UV-I 9 W/m -2,4 C -0,7 C 8,0 km/h (2 Bft) 100 %
02.04.2020 07:08 -0,7 C 88 % 1014,4 hPa 0,0 l/m 0 min 0 min 0,000 mm 0,0 UV-I 7 W/m -2,4 C -0,9 C 9,7 km/h (2 Bft) 100 %
02.04.2020 07:06 -0,7 C 88 % 1014,4 hPa 0,0 l/m 0 min 0 min 0,000 mm 0,0 UV-I 7 W/m -2,4 C -0,7 C 9,7 km/h (2 Bft) 95 %
02.04.2020 07:04 -0,7 C 88 % 1014,4 hPa 0,0 l/m 0 min 0 min 0,000 mm 0,0 UV-I 5 W/m -2,4 C -0,8 C 9,7 km/h (2 Bft) 98 %
02.04.2020 07:00 -0,7 C 88 % 1014,3 hPa 0,0 l/m 0 min 0 min 0,000 mm 0,0 UV-I 3 W/m -2,4 C -0,7 C 6,4 km/h (2 Bft) 98 %
02.04.2020 06:58 -0,7 C 88 % 1014,3 hPa 0,0 l/m 0 min 0 min 0,000 mm 0,0 UV-I 2 W/m -2,4 C -0,7 C 8,0 km/h (2 Bft) 96 %
02.04.2020 06:56 -0,8 C 87 % 1014,2 hPa 0,0 l/m 0 min 0 min 0,000 mm 0,0 UV-I 0 W/m -2,7 C -0,8 C 8,0 km/h (2 Bft) 100 %
02.04.2020 06:54 -0,8 C 87 % 1014,3 hPa 0,0 l/m 0 min 0 min 0,000 mm 0,0 UV-I 0 W/m -2,7 C -0,8 C 8,0 km/h (2 Bft) 100 %
02.04.2020 06:52 -0,8 C 87 % 1014,2 hPa 0,0 l/m 0 min 0 min 0,000 mm 0,0 UV-I 0 W/m -2,7 C -0,8 C 8,0 km/h (2 Bft) 96 %
02.04.2020 06:50 -0,8 C 87 % 1014,2 hPa 0,0 l/m 0 min 0 min 0,000 mm 0,0 UV-I 0 W/m -2,7 C -0,8 C 8,0 km/h (2 Bft) 96 %
02.04.2020 06:48 -0,8 C 87 % 1014,3 hPa 0,0 l/m 0 min 0 min 0,000 mm 0,0 UV-I 0 W/m -2,7 C -0,8 C 8,0 km/h (2 Bft) 98 %
02.04.2020 06:46 -0,8 C 87 % 1014,2 hPa 0,0 l/m 0 min 0 min 0,000 mm 0,0 UV-I 0 W/m -2,7 C -0,8 C 6,4 km/h (2 Bft) 96 %
02.04.2020 06:44 -0,8 C 86 % 1014,2 hPa 0,0 l/m 0 min 0 min 0,000 mm 0,0 UV-I 0 W/m -2,8 C -0,8 C 6,4 km/h (2 Bft) 98 %
02.04.2020 06:42 -0,8 C 86 % 1014,2 hPa 0,0 l/m 0 min 0 min 0,000 mm 0,0 UV-I 0 W/m -2,8 C -0,8 C 8,0 km/h (2 Bft) 98 %
02.04.2020 06:40 -0,8 C 86 % 1014,2 hPa 0,0 l/m 0 min 0 min 0,000 mm 0,0 UV-I 0 W/m -2,8 C -1,7 C 9,7 km/h (2 Bft) 94 %
02.04.2020 06:38 -0,7 C 86 % 1014,2 hPa 0,0 l/m 0 min 0 min 0,000 mm 0,0 UV-I 0 W/m -2,7 C -2,3 C 11,3 km/h (2 Bft) 98 %
02.04.2020 06:36 -0,7 C 86 % 1014,2 hPa 0,0 l/m 0 min 0 min 0,000 mm 0,0 UV-I 0 W/m -2,7 C -3,4 C 12,9 km/h (3 Bft) 96 %
02.04.2020 06:34 -0,6 C 86 % 1014,2 hPa 0,0 l/m 0 min 0 min 0,000 mm 0,0 UV-I 0 W/m -2,6 C -3,8 C 14,5 km/h (3 Bft) 98 %
02.04.2020 06:32 -0,6 C 86 % 1014,3 hPa 0,0 l/m 0 min 0 min 0,000 mm 0,0 UV-I 0 W/m -2,6 C -2,9 C 11,3 km/h (2 Bft) 92 %
02.04.2020 06:30 -0,6 C 86 % 1014,3 hPa 0,0 l/m 0 min 0 min 0,000 mm 0,0 UV-I 0 W/m -2,6 C -1,6 C 11,3 km/h (2 Bft) 96 %
02.04.2020 06:28 -0,6 C 86 % 1014,4 hPa 0,0 l/m 0 min 0 min 0,000 mm 0,0 UV-I 0 W/m -2,6 C -0,6 C 8,0 km/h (2 Bft) 96 %
02.04.2020 06:26 -0,6 C 86 % 1014,4 hPa 0,0 l/m 0 min 0 min 0,000 mm 0,0 UV-I 0 W/m -2,6 C -0,6 C 8,0 km/h (2 Bft) 98 %
02.04.2020 06:24 -0,6 C 86 % 1014,4 hPa 0,0 l/m 0 min 0 min 0,000 mm 0,0 UV-I 0 W/m -2,6 C -0,6 C 6,4 km/h (2 Bft) 97 %
02.04.2020 06:20 -0,6 C 86 % 1014,4 hPa 0,0 l/m 0 min 0 min 0,000 mm 0,0 UV-I 0 W/m -2,6 C -0,6 C 6,4 km/h (2 Bft) 98 %
02.04.2020 06:18 -0,6 C 86 % 1014,4 hPa 0,0 l/m 0 min 0 min 0,000 mm 0,0 UV-I 0 W/m -2,6 C -0,6 C 6,4 km/h (2 Bft) 98 %
02.04.2020 06:16 -0,6 C 86 % 1014,4 hPa 0,0 l/m 0 min 0 min 0,000 mm 0,0 UV-I 0 W/m -2,6 C -0,6 C 8,0 km/h (2 Bft) 98 %
02.04.2020 06:14 -0,6 C 86 % 1014,4 hPa 0,0 l/m 0 min 0 min 0,000 mm 0,0 UV-I 0 W/m -2,6 C -0,6 C 8,0 km/h (2 Bft) 98 %
02.04.2020 06:12 -0,5 C 86 % 1014,4 hPa 0,0 l/m 0 min 0 min 0,000 mm 0,0 UV-I 0 W/m -2,5 C -0,5 C 8,0 km/h (2 Bft) 96 %
02.04.2020 06:10 -0,5 C 86 % 1014,5 hPa 0,0 l/m 0 min 0 min 0,000 mm 0,0 UV-I 0 W/m -2,5 C -0,5 C 8,0 km/h (2 Bft) 98 %
02.04.2020 06:08 -0,4 C 85 % 1014,5 hPa 0,0 l/m 0 min 0 min 0,000 mm 0,0 UV-I 0 W/m -2,6 C -0,4 C 6,4 km/h (2 Bft) 98 %
02.04.2020 06:06 -0,4 C 85 % 1014,5 hPa 0,0 l/m 0 min 0 min 0,000 mm 0,0 UV-I 0 W/m -2,6 C -0,4 C 6,4 km/h (2 Bft) 98 %
02.04.2020 06:04 -0,4 C 85 % 1014,5 hPa 0,0 l/m 0 min 0 min 0,000 mm 0,0 UV-I 0 W/m -2,6 C -0,4 C 6,4 km/h (2 Bft) 99 %
02.04.2020 06:00 -0,4 C 85 % 1014,5 hPa 0,0 l/m 0 min 0 min 0,000 mm 0,0 UV-I 0 W/m -2,6 C -0,4 C 6,4 km/h (2 Bft) 100 %
02.04.2020 05:58 -0,3 C 85 % 1014,5 hPa 0,0 l/m 0 min 0 min 0,000 mm 0,0 UV-I 0 W/m -2,5 C -0,3 C 8,0 km/h (2 Bft) 98 %
02.04.2020 05:56 -0,3 C 86 % 1014,5 hPa 0,0 l/m 0 min 0 min 0,000 mm 0,0 UV-I 0 W/m -2,3 C -0,3 C 6,4 km/h (2 Bft) 97 %
02.04.2020 05:54 -0,4 C 85 % 1014,5 hPa 0,0 l/m 0 min 0 min 0,000 mm 0,0 UV-I 0 W/m -2,6 C -0,4 C 9,7 km/h (2 Bft) 100 %
02.04.2020 05:52 -0,4 C 85 % 1014,5 hPa 0,0 l/m 0 min 0 min 0,000 mm 0,0 UV-I 0 W/m -2,6 C -0,4 C 8,0 km/h (2 Bft) 98 %
02.04.2020 05:50 -0,4 C 85 % 1014,6 hPa 0,0 l/m 0 min 0 min 0,000 mm 0,0 UV-I 0 W/m -2,6 C -0,4 C 6,4 km/h (2 Bft) 100 %
02.04.2020 05:48 -0,4 C 85 % 1014,7 hPa 0,0 l/m 0 min 0 min 0,000 mm 0,0 UV-I 0 W/m -2,6 C -0,4 C 9,7 km/h (2 Bft) 100 %
02.04.2020 05:46 -0,4 C 85 % 1014,7 hPa 0,0 l/m 0 min 0 min 0,000 mm 0,0 UV-I 0 W/m -2,6 C -0,9 C 9,7 km/h (2 Bft) 100 %
02.04.2020 05:44 -0,4 C 85 % 1014,7 hPa 0,0 l/m 0 min 0 min 0,000 mm 0,0 UV-I 0 W/m -2,6 C -0,4 C 8,0 km/h (2 Bft) 100 %
02.04.2020 05:42 -0,3 C 85 % 1014,7 hPa 0,0 l/m 0 min 0 min 0,000 mm 0,0 UV-I 0 W/m -2,5 C -0,3 C 6,4 km/h (2 Bft) 100 %
02.04.2020 05:40 -0,3 C 84 % 1014,7 hPa 0,0 l/m 0 min 0 min 0,000 mm 0,0 UV-I 0 W/m -2,7 C -0,3 C 8,0 km/h (2 Bft) 95 %
02.04.2020 05:38 -0,3 C 84 % 1014,7 hPa 0,0 l/m 0 min 0 min 0,000 mm 0,0 UV-I 0 W/m -2,7 C -0,3 C 4,8 km/h (1 Bft) 100 %
02.04.2020 05:36 -0,3 C 84 % 1014,7 hPa 0,0 l/m 0 min 0 min 0,000 mm 0,0 UV-I 0 W/m -2,7 C -0,3 C 6,4 km/h (2 Bft) 100 %
02.04.2020 05:34 -0,2 C 84 % 1014,7 hPa 0,0 l/m 0 min 0 min 0,000 mm 0,0 UV-I 0 W/m -2,6 C -0,2 C 6,4 km/h (2 Bft) 100 %
02.04.2020 05:32 -0,2 C 84 % 1014,8 hPa 0,0 l/m 0 min 0 min 0,000 mm 0,0 UV-I 0 W/m -2,6 C -0,2 C 9,7 km/h (2 Bft) 97 %
02.04.2020 05:30 -0,2 C 84 % 1014,8 hPa 0,0 l/m 0 min 0 min 0,000 mm 0,0 UV-I 0 W/m -2,6 C -0,2 C 8,0 km/h (2 Bft) 98 %
02.04.2020 05:28 -0,2 C 84 % 1014,8 hPa 0,0 l/m 0 min 0 min 0,000 mm 0,0 UV-I 0 W/m -2,6 C -0,2 C 9,7 km/h (2 Bft) 98 %
02.04.2020 05:26 -0,1 C 84 % 1014,9 hPa 0,0 l/m 0 min 0 min 0,000 mm 0,0 UV-I 0 W/m -2,5 C -0,7 C 9,7 km/h (2 Bft) 98 %
02.04.2020 05:24 -0,1 C 84 % 1014,9 hPa 0,0 l/m 0 min 0 min 0,000 mm 0,0 UV-I 0 W/m -2,5 C -0,7 C 11,3 km/h (2 Bft) 94 %
02.04.2020 05:22 -0,1 C 85 % 1014,9 hPa 0,0 l/m 0 min 0 min 0,000 mm 0,0 UV-I 0 W/m -2,3 C -0,1 C 9,7 km/h (2 Bft) 95 %
02.04.2020 05:20 -0,1 C 85 % 1014,9 hPa 0,0 l/m 0 min 0 min 0,000 mm 0,0 UV-I 0 W/m -2,3 C -0,1 C 4,8 km/h (1 Bft) 100 %
02.04.2020 05:18 -0,2 C 85 % 1014,9 hPa 0,0 l/m 0 min 0 min 0,000 mm 0,0 UV-I 0 W/m -2,4 C -0,2 C 3,2 km/h (1 Bft) 96 %
02.04.2020 05:16 -0,2 C 85 % 1014,9 hPa 0,0 l/m 0 min 0 min 0,000 mm 0,0 UV-I 0 W/m -2,4 C -0,2 C 4,8 km/h (1 Bft) 98 %
02.04.2020 05:14 -0,3 C 84 % 1014,9 hPa 0,0 l/m 0 min 0 min 0,000 mm 0,0 UV-I 0 W/m -2,7 C -0,3 C 3,2 km/h (1 Bft) 91 %
02.04.2020 05:12 -0,3 C 84 % 1015,0 hPa 0,0 l/m 0 min 0 min 0,000 mm 0,0 UV-I 0 W/m -2,7 C -0,3 C 3,2 km/h (1 Bft) 98 %
02.04.2020 05:10 -0,3 C 84 % 1015,0 hPa 0,0 l/m 0 min 0 min 0,000 mm 0,0 UV-I 0 W/m -2,7 C -0,3 C 4,8 km/h (1 Bft) 100 %
02.04.2020 05:08 -0,3 C 84 % 1014,9 hPa 0,0 l/m 0 min 0 min 0,000 mm 0,0 UV-I 0 W/m -2,7 C -0,3 C 4,8 km/h (1 Bft) 100 %
02.04.2020 05:06 -0,3 C 84 % 1014,9 hPa 0,0 l/m 0 min 0 min 0,000 mm 0,0 UV-I 0 W/m -2,7 C -0,3 C 6,4 km/h (2 Bft) 98 %
02.04.2020 05:04 -0,3 C 84 % 1014,9 hPa 0,0 l/m 0 min 0 min 0,000 mm 0,0 UV-I 0 W/m -2,7 C -0,3 C 8,0 km/h (2 Bft) 98 %
02.04.2020 05:00 -0,3 C 84 % 1014,9 hPa 0,0 l/m 0 min 0 min 0,000 mm 0,0 UV-I 0 W/m -2,7 C -0,3 C 8,0 km/h (2 Bft) 98 %
02.04.2020 04:58 -0,3 C 84 % 1015,0 hPa 0,0 l/m 0 min 0 min 0,000 mm 0,0 UV-I 0 W/m -2,7 C -0,3 C 8,0 km/h (2 Bft) 96 %
02.04.2020 04:56 -0,3 C 84 % 1015,0 hPa 0,0 l/m 0 min 0 min 0,000 mm 0,0 UV-I 0 W/m -2,7 C -0,3 C 6,4 km/h (2 Bft) 98 %
02.04.2020 04:54 -0,2 C 84 % 1015,0 hPa 0,0 l/m 0 min 0 min 0,000 mm 0,0 UV-I 0 W/m -2,6 C -0,2 C 8,0 km/h (2 Bft) 94 %
02.04.2020 04:52 -0,2 C 84 % 1015,0 hPa 0,0 l/m 0 min 0 min 0,000 mm 0,0 UV-I 0 W/m -2,6 C -0,2 C 8,0 km/h (2 Bft) 96 %
02.04.2020 04:50 -0,2 C 84 % 1015,1 hPa 0,0 l/m 0 min 0 min 0,000 mm 0,0 UV-I 0 W/m -2,6 C -0,2 C 8,0 km/h (2 Bft) 91 %
02.04.2020 04:48 -0,2 C 84 % 1015,0 hPa 0,0 l/m 0 min 0 min 0,000 mm 0,0 UV-I 0 W/m -2,6 C -0,2 C 6,4 km/h (2 Bft) 96 %
02.04.2020 04:46 -0,2 C 83 % 1015,0 hPa 0,0 l/m 0 min 0 min 0,000 mm 0,0 UV-I 0 W/m -2,7 C -0,2 C 6,4 km/h (2 Bft) 93 %
02.04.2020 04:44 -0,2 C 83 % 1015,1 hPa 0,0 l/m 0 min 0 min 0,000 mm 0,0 UV-I 0 W/m -2,7 C -0,2 C 6,4 km/h (2 Bft) 96 %
02.04.2020 04:42 -0,2 C 83 % 1015,1 hPa 0,0 l/m 0 min 0 min 0,000 mm 0,0 UV-I 0 W/m -2,7 C -0,2 C 3,2 km/h (1 Bft) 91 %
02.04.2020 04:40 -0,1 C 83 % 1015,1 hPa 0,0 l/m 0 min 0 min 0,000 mm 0,0 UV-I 0 W/m -2,6 C -0,1 C 4,8 km/h (1 Bft) 94 %
02.04.2020 04:38 -0,1 C 83 % 1015,1 hPa 0,0 l/m 0 min 0 min 0,000 mm 0,0 UV-I 0 W/m -2,6 C -0,1 C 3,2 km/h (1 Bft) 96 %
02.04.2020 04:36 -0,1 C 83 % 1015,1 hPa 0,0 l/m 0 min 0 min 0,000 mm 0,0 UV-I 0 W/m -2,6 C -0,1 C 4,8 km/h (1 Bft) 96 %
02.04.2020 04:34 -0,1 C 83 % 1015,1 hPa 0,0 l/m 0 min 0 min 0,000 mm 0,0 UV-I 0 W/m -2,6 C -0,1 C 6,4 km/h (2 Bft) 96 %
02.04.2020 04:32 -0,1 C 83 % 1015,1 hPa 0,0 l/m 0 min 0 min 0,000 mm 0,0 UV-I 0 W/m -2,6 C -0,1 C 3,2 km/h (1 Bft) 96 %
02.04.2020 04:30 -0,1 C 83 % 1015,1 hPa 0,0 l/m 0 min 0 min 0,000 mm 0,0 UV-I 0 W/m -2,6 C -0,1 C 4,8 km/h (1 Bft) 98 %
02.04.2020 04:28 -0,1 C 83 % 1015,1 hPa 0,0 l/m 0 min 0 min 0,000 mm 0,0 UV-I 0 W/m -2,6 C -0,1 C 3,2 km/h (1 Bft) 94 %
02.04.2020 04:26 -0,1 C 83 % 1015,1 hPa 0,0 l/m 0 min 0 min 0,000 mm 0,0 UV-I 0 W/m -2,6 C -0,1 C 1,6 km/h (1 Bft) 96 %
02.04.2020 04:24 -0,1 C 83 % 1015,2 hPa 0,0 l/m 0 min 0 min 0,000 mm 0,0 UV-I 0 W/m -2,6 C -0,1 C 0,0 km/h (0 Bft) 94 %
02.04.2020 04:22 -0,1 C 83 % 1015,2 hPa 0,0 l/m 0 min 0 min 0,000 mm 0,0 UV-I 0 W/m -2,6 C -0,1 C 1,6 km/h (1 Bft) 93 %
02.04.2020 04:20 0,0 C 83 % 1015,2 hPa 0,0 l/m 0 min 0 min 0,000 mm 0,0 UV-I 0 W/m -2,5 C 0,0 C 3,2 km/h (1 Bft) 96 %
02.04.2020 04:18 0,0 C 83 % 1015,2 hPa 0,0 l/m 0 min 0 min 0,000 mm 0,0 UV-I 0 W/m -2,5 C 0,0 C 3,2 km/h (1 Bft) 91 %
02.04.2020 04:16 0,0 C 83 % 1015,3 hPa 0,0 l/m 0 min 0 min 0,000 mm 0,0 UV-I 0 W/m -2,5 C 0,0 C 3,2 km/h (1 Bft) 91 %
02.04.2020 04:14 0,0 C 82 % 1015,3 hPa 0,0 l/m 0 min 0 min 0,000 mm 0,0 UV-I 0 W/m -2,7 C 0,0 C 4,8 km/h (1 Bft) 96 %
02.04.2020 04:12 0,0 C 82 % 1015,3 hPa 0,0 l/m 0 min 0 min 0,000 mm 0,0 UV-I 0 W/m -2,7 C 0,0 C 6,4 km/h (2 Bft) 96 %
02.04.2020 04:10 0,0 C 82 % 1015,3 hPa 0,0 l/m 0 min 0 min 0,000 mm 0,0 UV-I 0 W/m -2,7 C 0,0 C 6,4 km/h (2 Bft) 96 %
02.04.2020 04:08 0,0 C 82 % 1015,3 hPa 0,0 l/m 0 min 0 min 0,000 mm 0,0 UV-I 0 W/m -2,7 C 0,0 C 9,7 km/h (2 Bft) 94 %
02.04.2020 04:06 0,0 C 82 % 1015,3 hPa 0,0 l/m 0 min 0 min 0,000 mm 0,0 UV-I 0 W/m -2,7 C 0,0 C 4,8 km/h (1 Bft) 93 %
02.04.2020 04:04 0,0 C 82 % 1015,4 hPa 0,0 l/m 0 min 0 min 0,000 mm 0,0 UV-I 0 W/m -2,7 C 0,0 C 8,0 km/h (2 Bft) 96 %
02.04.2020 04:00 0,1 C 81 % 1015,4 hPa 0,0 l/m 0 min 0 min 0,000 mm 0,0 UV-I 0 W/m -2,8 C 0,1 C 9,7 km/h (2 Bft) 91 %
02.04.2020 03:58 0,1 C 81 % 1015,4 hPa 0,0 l/m 0 min 0 min 0,000 mm 0,0 UV-I 0 W/m -2,8 C 0,1 C 9,7 km/h (2 Bft) 94 %
02.04.2020 03:56 0,2 C 81 % 1015,4 hPa 0,0 l/m 0 min 0 min 0,000 mm 0,0 UV-I 0 W/m -2,7 C 0,2 C 6,4 km/h (2 Bft) 96 %
02.04.2020 03:54 0,2 C 81 % 1015,4 hPa 0,0 l/m 0 min 0 min 0,000 mm 0,0 UV-I 0 W/m -2,7 C 0,2 C 8,0 km/h (2 Bft) 98 %
02.04.2020 03:52 0,3 C 81 % 1015,4 hPa 0,0 l/m 0 min 0 min 0,000 mm 0,0 UV-I 0 W/m -2,6 C 0,3 C 6,4 km/h (2 Bft) 98 %
02.04.2020 03:50 0,3 C 81 % 1015,4 hPa 0,0 l/m 0 min 0 min 0,000 mm 0,0 UV-I 0 W/m -2,6 C 0,3 C 6,4 km/h (2 Bft) 98 %
02.04.2020 03:48 0,3 C 81 % 1015,4 hPa 0,0 l/m 0 min 0 min 0,000 mm 0,0 UV-I 0 W/m -2,6 C 0,3 C 4,8 km/h (1 Bft) 98 %
02.04.2020 03:46 0,4 C 81 % 1015,5 hPa 0,0 l/m 0 min 0 min 0,000 mm 0,0 UV-I 0 W/m -2,5 C 0,4 C 6,4 km/h (2 Bft) 98 %
02.04.2020 03:44 0,4 C 81 % 1015,5 hPa 0,0 l/m 0 min 0 min 0,000 mm 0,0 UV-I 0 W/m -2,5 C 0,4 C 4,8 km/h (1 Bft) 98 %
02.04.2020 03:42 0,4 C 81 % 1015,5 hPa 0,0 l/m 0 min 0 min 0,000 mm 0,0 UV-I 0 W/m -2,5 C 0,4 C 3,2 km/h (1 Bft) 100 %
02.04.2020 03:40 0,4 C 81 % 1015,5 hPa 0,0 l/m 0 min 0 min 0,000 mm 0,0 UV-I 0 W/m -2,5 C 0,4 C 3,2 km/h (1 Bft) 100 %
02.04.2020 03:38 0,4 C 81 % 1015,4 hPa 0,0 l/m 0 min 0 min 0,000 mm 0,0 UV-I 0 W/m -2,5 C 0,4 C 0,0 km/h (0 Bft) 100 %
02.04.2020 03:36 0,4 C 81 % 1015,4 hPa 0,0 l/m 0 min 0 min 0,000 mm 0,0 UV-I 0 W/m -2,5 C 0,4 C 0,0 km/h (0 Bft) 98 %
02.04.2020 03:34 0,4 C 81 % 1015,5 hPa 0,0 l/m 0 min 0 min 0,000 mm 0,0 UV-I 0 W/m -2,5 C 0,4 C 4,8 km/h (1 Bft) 100 %
02.04.2020 03:32 0,5 C 81 % 1015,5 hPa 0,0 l/m 0 min 0 min 0,000 mm 0,0 UV-I 0 W/m -2,4 C 0,5 C 3,2 km/h (1 Bft) 100 %
02.04.2020 03:30 0,5 C 81 % 1015,5 hPa 0,0 l/m 0 min 0 min 0,000 mm 0,0 UV-I 0 W/m -2,4 C 0,5 C 6,4 km/h (2 Bft) 100 %
02.04.2020 03:28 0,5 C 81 % 1015,5 hPa 0,0 l/m 0 min 0 min 0,000 mm 0,0 UV-I 0 W/m -2,4 C 0,5 C 4,8 km/h (1 Bft) 98 %
02.04.2020 03:26 0,6 C 81 % 1015,5 hPa 0,0 l/m 0 min 0 min 0,000 mm 0,0 UV-I 0 W/m -2,3 C 0,6 C 4,8 km/h (1 Bft) 98 %
02.04.2020 03:24 0,6 C 81 % 1015,4 hPa 0,0 l/m 0 min 0 min 0,000 mm 0,0 UV-I 0 W/m -2,3 C 0,6 C 8,0 km/h (2 Bft) 100 %
02.04.2020 03:22 0,6 C 80 % 1015,5 hPa 0,0 l/m 0 min 0 min 0,000 mm 0,0 UV-I 0 W/m -2,4 C 0,6 C 6,4 km/h (2 Bft) 98 %
02.04.2020 03:20 0,6 C 80 % 1015,5 hPa 0,0 l/m 0 min 0 min 0,000 mm 0,0 UV-I 0 W/m -2,4 C 0,6 C 8,0 km/h (2 Bft) 100 %
02.04.2020 03:18 0,6 C 80 % 1015,4 hPa 0,0 l/m 0 min 0 min 0,000 mm 0,0 UV-I 0 W/m -2,4 C 0,6 C 9,7 km/h (2 Bft) 98 %
02.04.2020 03:16 0,7 C 80 % 1015,5 hPa 0,0 l/m 0 min 0 min 0,000 mm 0,0 UV-I 0 W/m -2,3 C 0,7 C 6,4 km/h (2 Bft) 98 %
02.04.2020 03:14 0,7 C 81 % 1015,5 hPa 0,0 l/m 0 min 0 min 0,000 mm 0,0 UV-I 0 W/m -2,2 C 0,7 C 8,0 km/h (2 Bft) 100 %
02.04.2020 03:12 0,7 C 81 % 1015,5 hPa 0,0 l/m 0 min 0 min 0,000 mm 0,0 UV-I 0 W/m -2,2 C 0,7 C 6,4 km/h (2 Bft) 98 %
02.04.2020 03:10 0,7 C 81 % 1015,6 hPa 0,0 l/m 0 min 0 min 0,000 mm 0,0 UV-I 0 W/m -2,2 C 0,7 C 8,0 km/h (2 Bft) 98 %
02.04.2020 03:08 0,7 C 81 % 1015,6 hPa 0,0 l/m 0 min 0 min 0,000 mm 0,0 UV-I 0 W/m -2,2 C 0,7 C 8,0 km/h (2 Bft) 100 %
02.04.2020 03:06 0,7 C 81 % 1015,6 hPa 0,0 l/m 0 min 0 min 0,000 mm 0,0 UV-I 0 W/m -2,2 C 0,7 C 3,2 km/h (1 Bft) 94 %
02.04.2020 03:04 0,6 C 81 % 1015,6 hPa 0,0 l/m 0 min 0 min 0,000 mm 0,0 UV-I 0 W/m -2,3 C 0,6 C 0,0 km/h (0 Bft) 97 %
02.04.2020 03:00 0,6 C 81 % 1015,7 hPa 0,0 l/m 0 min 0 min 0,000 mm 0,0 UV-I 0 W/m -2,3 C 0,6 C 0,0 km/h (0 Bft) 89 %
02.04.2020 02:58 0,6 C 81 % 1015,7 hPa 0,0 l/m 0 min 0 min 0,000 mm 0,0 UV-I 0 W/m -2,3 C 0,6 C 1,6 km/h (1 Bft) 96 %
02.04.2020 02:56 0,6 C 81 % 1015,7 hPa 0,0 l/m 0 min 0 min 0,000 mm 0,0 UV-I 0 W/m -2,3 C 0,6 C 3,2 km/h (1 Bft) 96 %
02.04.2020 02:54 0,6 C 80 % 1015,7 hPa 0,0 l/m 0 min 0 min 0,000 mm 0,0 UV-I 0 W/m -2,4 C 0,6 C 4,8 km/h (1 Bft) 96 %
02.04.2020 02:52 0,6 C 80 % 1015,7 hPa 0,0 l/m 0 min 0 min 0,000 mm 0,0 UV-I 0 W/m -2,4 C 0,6 C 11,3 km/h (2 Bft) 96 %
02.04.2020 02:50 0,6 C 80 % 1015,6 hPa 0,0 l/m 0 min 0 min 0,000 mm 0,0 UV-I 0 W/m -2,4 C 0,6 C 6,4 km/h (2 Bft) 96 %
02.04.2020 02:48 0,6 C 80 % 1015,6 hPa 0,0 l/m 0 min 0 min 0,000 mm 0,0 UV-I 0 W/m -2,4 C 0,6 C 4,8 km/h (1 Bft) 96 %
02.04.2020 02:46 0,6 C 80 % 1015,6 hPa 0,0 l/m 0 min 0 min 0,000 mm 0,0 UV-I 0 W/m -2,4 C 0,6 C 4,8 km/h (1 Bft) 93 %
02.04.2020 02:44 0,6 C 80 % 1015,6 hPa 0,0 l/m 0 min 0 min 0,000 mm 0,0 UV-I 0 W/m -2,4 C 0,6 C 6,4 km/h (2 Bft) 96 %
02.04.2020 02:42 0,6 C 80 % 1015,6 hPa 0,0 l/m 0 min 0 min 0,000 mm 0,0 UV-I 0 W/m -2,4 C 0,6 C 8,0 km/h (2 Bft) 91 %
02.04.2020 02:40 0,6 C 80 % 1015,6 hPa 0,0 l/m 0 min 0 min 0,000 mm 0,0 UV-I 0 W/m -2,4 C 0,6 C 6,4 km/h (2 Bft) 96 %
02.04.2020 02:38 0,6 C 80 % 1015,6 hPa 0,0 l/m 0 min 0 min 0,000 mm 0,0 UV-I 0 W/m -2,4 C 0,6 C 8,0 km/h (2 Bft) 96 %
02.04.2020 02:36 0,6 C 80 % 1015,6 hPa 0,0 l/m 0 min 0 min 0,000 mm 0,0 UV-I 0 W/m -2,4 C 0,6 C 6,4 km/h (2 Bft) 100 %
02.04.2020 02:34 0,6 C 80 % 1015,6 hPa 0,0 l/m 0 min 0 min 0,000 mm 0,0 UV-I 0 W/m -2,4 C 0,6 C 6,4 km/h (2 Bft) 100 %
02.04.2020 02:32 0,6 C 80 % 1015,6 hPa 0,0 l/m 0 min 0 min 0,000 mm 0,0 UV-I 0 W/m -2,4 C 0,6 C 11,3 km/h (2 Bft) 100 %
02.04.2020 02:30 0,7 C 80 % 1015,6 hPa 0,0 l/m 0 min 0 min 0,000 mm 0,0 UV-I 0 W/m -2,3 C -0,7 C 9,7 km/h (2 Bft) 96 %
02.04.2020 02:28 0,7 C 80 % 1015,6 hPa 0,0 l/m 0 min 0 min 0,000 mm 0,0 UV-I 0 W/m -2,3 C 0,7 C 9,7 km/h (2 Bft) 100 %
02.04.2020 02:26 0,7 C 80 % 1015,6 hPa 0,0 l/m 0 min 0 min 0,000 mm 0,0 UV-I 0 W/m -2,3 C -2,1 C 14,5 km/h (3 Bft) 100 %
02.04.2020 02:24 0,7 C 80 % 1015,6 hPa 0,0 l/m 0 min 0 min 0,000 mm 0,0 UV-I 0 W/m -2,3 C -1,4 C 12,9 km/h (3 Bft) 98 %
02.04.2020 02:22 0,7 C 80 % 1015,6 hPa 0,0 l/m 0 min 0 min 0,000 mm 0,0 UV-I 0 W/m -2,3 C 0,7 C 9,7 km/h (2 Bft) 100 %
02.04.2020 02:20 0,6 C 80 % 1015,6 hPa 0,0 l/m 0 min 0 min 0,000 mm 0,0 UV-I 0 W/m -2,4 C 0,6 C 8,0 km/h (2 Bft) 100 %
02.04.2020 02:18 0,6 C 80 % 1015,7 hPa 0,0 l/m 0 min 0 min 0,000 mm 0,0 UV-I 0 W/m -2,4 C 0,6 C 8,0 km/h (2 Bft) 100 %
02.04.2020 02:16 0,6 C 80 % 1015,7 hPa 0,0 l/m 0 min 0 min 0,000 mm 0,0 UV-I 0 W/m -2,4 C 0,6 C 8,0 km/h (2 Bft) 100 %
02.04.2020 02:14 0,6 C 80 % 1015,7 hPa 0,0 l/m 0 min 0 min 0,000 mm 0,0 UV-I 0 W/m -2,4 C -0,9 C 12,9 km/h (3 Bft) 96 %
02.04.2020 02:12 0,5 C 80 % 1015,7 hPa 0,0 l/m 0 min 0 min 0,000 mm 0,0 UV-I 0 W/m -2,5 C -1,5 C 14,5 km/h (3 Bft) 100 %
02.04.2020 02:10 0,5 C 80 % 1015,7 hPa 0,0 l/m 0 min 0 min 0,000 mm 0,0 UV-I 0 W/m -2,5 C -1,4 C 12,9 km/h (3 Bft) 100 %
02.04.2020 02:08 0,5 C 80 % 1015,7 hPa 0,0 l/m 0 min 0 min 0,000 mm 0,0 UV-I 0 W/m -2,5 C 0,5 C 11,3 km/h (2 Bft) 100 %
02.04.2020 02:06 0,5 C 80 % 1015,7 hPa 0,0 l/m 0 min 0 min 0,000 mm 0,0 UV-I 0 W/m -2,5 C -2,0 C 16,1 km/h (3 Bft) 100 %
02.04.2020 02:04 0,5 C 80 % 1015,7 hPa 0,0 l/m 0 min 0 min 0,025 mm 0,0 UV-I 0 W/m -2,5 C -1,7 C 16,1 km/h (3 Bft) 100 %
02.04.2020 02:00 0,6 C 79 % 1015,7 hPa 0,0 l/m 0 min 0 min 0,000 mm 0,0 UV-I 0 W/m -2,6 C -2,4 C 14,5 km/h (3 Bft) 96 %
02.04.2020 01:58 0,6 C 79 % 1015,7 hPa 0,0 l/m 0 min 0 min 0,000 mm 0,0 UV-I 0 W/m -2,6 C -3,2 C 16,1 km/h (3 Bft) 100 %
02.04.2020 01:56 0,7 C 79 % 1015,8 hPa 0,0 l/m 0 min 0 min 0,000 mm 0,0 UV-I 0 W/m -2,5 C -2,7 C 16,1 km/h (3 Bft) 98 %
02.04.2020 01:54 0,7 C 79 % 1015,8 hPa 0,0 l/m 0 min 0 min 0,000 mm 0,0 UV-I 0 W/m -2,5 C -3,3 C 17,7 km/h (3 Bft) 98 %
02.04.2020 01:52 0,8 C 78 % 1015,9 hPa 0,0 l/m 0 min 0 min 0,000 mm 0,0 UV-I 0 W/m -2,6 C -0,2 C 12,9 km/h (3 Bft) 100 %
02.04.2020 01:50 0,8 C 78 % 1015,8 hPa 0,0 l/m 0 min 0 min 0,000 mm 0,0 UV-I 0 W/m -2,6 C -0,9 C 12,9 km/h (3 Bft) 98 %
02.04.2020 01:48 0,8 C 78 % 1015,9 hPa 0,0 l/m 0 min 0 min 0,000 mm 0,0 UV-I 0 W/m -2,6 C -0,7 C 12,9 km/h (3 Bft) 98 %
02.04.2020 01:46 0,9 C 78 % 1015,9 hPa 0,0 l/m 0 min 0 min 0,000 mm 0,0 UV-I 0 W/m -2,5 C -1,5 C 12,9 km/h (3 Bft) 96 %
02.04.2020 01:44 0,9 C 78 % 1015,9 hPa 0,0 l/m 0 min 0 min 0,000 mm 0,0 UV-I 0 W/m -2,5 C 0,9 C 11,3 km/h (2 Bft) 100 %
02.04.2020 01:42 0,9 C 78 % 1015,8 hPa 0,0 l/m 0 min 0 min 0,000 mm 0,0 UV-I 0 W/m -2,5 C 0,9 C 12,9 km/h (3 Bft) 100 %
02.04.2020 01:40 1,0 C 77 % 1015,9 hPa 0,0 l/m 0 min 0 min 0,000 mm 0,0 UV-I 0 W/m -2,6 C 0,6 C 11,3 km/h (2 Bft) 100 %
02.04.2020 01:38 1,1 C 77 % 1015,9 hPa 0,0 l/m 0 min 0 min 0,000 mm 0,0 UV-I 0 W/m -2,5 C -0,5 C 12,9 km/h (3 Bft) 98 %
02.04.2020 01:36 1,1 C 77 % 1015,9 hPa 0,0 l/m 0 min 0 min 0,000 mm 0,0 UV-I 0 W/m -2,5 C -0,2 C 11,3 km/h (2 Bft) 96 %
02.04.2020 01:34 1,1 C 77 % 1015,9 hPa 0,0 l/m 0 min 0 min 0,000 mm 0,0 UV-I 0 W/m -2,5 C 1,1 C 8,0 km/h (2 Bft) 98 %
02.04.2020 01:32 1,1 C 77 % 1015,9 hPa 0,0 l/m 0 min 0 min 0,000 mm 0,0 UV-I 0 W/m -2,5 C 1,1 C 9,7 km/h (2 Bft) 98 %
02.04.2020 01:30 1,1 C 77 % 1015,9 hPa 0,0 l/m 0 min 0 min 0,000 mm 0,0 UV-I 0 W/m -2,5 C 0,6 C 12,9 km/h (3 Bft) 98 %
02.04.2020 01:28 1,1 C 77 % 1015,9 hPa 0,0 l/m 0 min 0 min 0,000 mm 0,0 UV-I 0 W/m -2,5 C 0,3 C 11,3 km/h (2 Bft) 98 %
02.04.2020 01:26 1,2 C 77 % 1015,9 hPa 0,0 l/m 0 min 0 min 0,000 mm 0,0 UV-I 0 W/m -2,4 C -1,1 C 16,1 km/h (3 Bft) 96 %
02.04.2020 01:24 1,2 C 76 % 1015,9 hPa 0,0 l/m 0 min 0 min 0,000 mm 0,0 UV-I 0 W/m -2,5 C -0,8 C 11,3 km/h (2 Bft) 98 %
02.04.2020 01:22 1,2 C 76 % 1015,9 hPa 0,0 l/m 0 min 0 min 0,000 mm 0,0 UV-I 0 W/m -2,5 C -0,4 C 11,3 km/h (2 Bft) 96 %
02.04.2020 01:20 1,3 C 76 % 1015,9 hPa 0,0 l/m 0 min 0 min 0,000 mm 0,0 UV-I 0 W/m -2,5 C 1,2 C 11,3 km/h (2 Bft) 98 %
02.04.2020 01:18 1,3 C 76 % 1015,9 hPa 0,0 l/m 0 min 0 min 0,000 mm 0,0 UV-I 0 W/m -2,5 C 1,3 C 9,7 km/h (2 Bft) 94 %
02.04.2020 01:16 1,3 C 76 % 1015,9 hPa 0,0 l/m 0 min 0 min 0,000 mm 0,0 UV-I 0 W/m -2,5 C 1,3 C 11,3 km/h (2 Bft) 98 %
02.04.2020 01:14 1,3 C 76 % 1016,0 hPa 0,0 l/m 0 min 0 min 0,000 mm 0,0 UV-I 0 W/m -2,5 C 1,3 C 9,7 km/h (2 Bft) 96 %
02.04.2020 01:12 1,3 C 76 % 1016,1 hPa 0,0 l/m 0 min 0 min 0,000 mm 0,0 UV-I 0 W/m -2,5 C 1,3 C 9,7 km/h (2 Bft) 95 %
02.04.2020 01:10 1,4 C 75 % 1016,1 hPa 0,0 l/m 0 min 0 min 0,000 mm 0,0 UV-I 0 W/m -2,5 C 1,4 C 9,7 km/h (2 Bft) 96 %
02.04.2020 01:08 1,4 C 75 % 1016,1 hPa 0,0 l/m 0 min 0 min 0,000 mm 0,0 UV-I 0 W/m -2,5 C 0,7 C 14,5 km/h (3 Bft) 98 %
02.04.2020 01:06 1,5 C 75 % 1016,0 hPa 0,0 l/m 0 min 0 min 0,000 mm 0,0 UV-I 0 W/m -2,4 C 0,3 C 12,9 km/h (3 Bft) 98 %
02.04.2020 01:04 1,6 C 75 % 1016,0 hPa 0,0 l/m 0 min 0 min 0,000 mm 0,0 UV-I 0 W/m -2,3 C 1,6 C 12,9 km/h (3 Bft) 97 %
02.04.2020 01:00 1,7 C 75 % 1016,1 hPa 0,0 l/m 0 min 0 min 0,000 mm 0,0 UV-I 0 W/m -2,2 C 1,7 C 8,0 km/h (2 Bft) 94 %
02.04.2020 00:58 1,7 C 75 % 1016,1 hPa 0,0 l/m 0 min 0 min 0,000 mm 0,0 UV-I 0 W/m -2,2 C 1,7 C 6,4 km/h (2 Bft) 98 %
02.04.2020 00:56 1,7 C 75 % 1016,1 hPa 0,0 l/m 0 min 0 min 0,000 mm 0,0 UV-I 0 W/m -2,2 C 1,7 C 4,8 km/h (1 Bft) 98 %
02.04.2020 00:54 1,7 C 75 % 1016,1 hPa 0,0 l/m 0 min 0 min 0,000 mm 0,0 UV-I 0 W/m -2,2 C 1,7 C 4,8 km/h (1 Bft) 94 %
02.04.2020 00:52 1,8 C 74 % 1016,2 hPa 0,0 l/m 0 min 0 min 0,000 mm 0,0 UV-I 0 W/m -2,3 C 1,8 C 8,0 km/h (2 Bft) 98 %
02.04.2020 00:50 1,8 C 74 % 1016,2 hPa 0,0 l/m 0 min 0 min 0,000 mm 0,0 UV-I 0 W/m -2,3 C 1,8 C 9,7 km/h (2 Bft) 96 %
02.04.2020 00:48 1,8 C 74 % 1016,2 hPa 0,0 l/m 0 min 0 min 0,000 mm 0,0 UV-I 0 W/m -2,3 C 1,8 C 9,7 km/h (2 Bft) 96 %
02.04.2020 00:46 1,8 C 74 % 1016,2 hPa 0,0 l/m 0 min 0 min 0,000 mm 0,0 UV-I 0 W/m -2,3 C 0,8 C 11,3 km/h (2 Bft) 96 %
02.04.2020 00:44 1,8 C 74 % 1016,2 hPa 0,0 l/m 0 min 0 min 0,000 mm 0,0 UV-I 0 W/m -2,3 C 1,7 C 12,9 km/h (3 Bft) 94 %
02.04.2020 00:42 1,8 C 74 % 1016,3 hPa 0,0 l/m 0 min 0 min 0,000 mm 0,0 UV-I 0 W/m -2,3 C 1,8 C 4,8 km/h (1 Bft) 96 %
02.04.2020 00:40 1,7 C 74 % 1016,3 hPa 0,0 l/m 0 min 0 min 0,000 mm 0,0 UV-I 0 W/m -2,4 C 1,7 C 6,4 km/h (2 Bft) 98 %
02.04.2020 00:38 1,7 C 74 % 1016,3 hPa 0,0 l/m 0 min 0 min 0,000 mm 0,0 UV-I 0 W/m -2,4 C 1,7 C 1,6 km/h (1 Bft) 98 %
02.04.2020 00:36 1,7 C 74 % 1016,3 hPa 0,0 l/m 0 min 0 min 0,000 mm 0,0 UV-I 0 W/m -2,4 C 1,7 C 1,6 km/h (1 Bft) 98 %
02.04.2020 00:34 1,7 C 74 % 1016,3 hPa 0,0 l/m 0 min 0 min 0,000 mm 0,0 UV-I 0 W/m -2,4 C 1,7 C 6,4 km/h (2 Bft) 98 %
02.04.2020 00:32 1,8 C 74 % 1016,3 hPa 0,0 l/m 0 min 0 min 0,000 mm 0,0 UV-I 0 W/m -2,3 C 1,8 C 0,0 km/h (0 Bft) 98 %
02.04.2020 00:30 1,8 C 74 % 1016,3 hPa 0,0 l/m 0 min 0 min 0,000 mm 0,0 UV-I 0 W/m -2,3 C 1,8 C 1,6 km/h (1 Bft) 98 %
02.04.2020 00:28 1,8 C 74 % 1016,3 hPa 0,0 l/m 0 min 0 min 0,000 mm 0,0 UV-I 0 W/m -2,3 C 1,8 C 4,8 km/h (1 Bft) 98 %
02.04.2020 00:26 1,8 C 73 % 1016,4 hPa 0,0 l/m 0 min 0 min 0,000 mm 0,0 UV-I 0 W/m -2,5 C 1,8 C 4,8 km/h (1 Bft) 98 %
02.04.2020 00:24 1,9 C 73 % 1016,4 hPa 0,0 l/m 0 min 0 min 0,000 mm 0,0 UV-I 0 W/m -2,4 C 1,9 C 8,0 km/h (2 Bft) 98 %
02.04.2020 00:20 2,0 C 73 % 1016,5 hPa 0,0 l/m 0 min 0 min 0,000 mm 0,0 UV-I 0 W/m -2,3 C 2,0 C 6,4 km/h (2 Bft) 96 %
02.04.2020 00:18 2,1 C 73 % 1016,5 hPa 0,0 l/m 0 min 0 min 0,000 mm 0,0 UV-I 0 W/m -2,2 C 2,1 C 8,0 km/h (2 Bft) 98 %
02.04.2020 00:16 2,1 C 73 % 1016,5 hPa 0,0 l/m 0 min 0 min 0,000 mm 0,0 UV-I 0 W/m -2,2 C 2,1 C 6,4 km/h (2 Bft) 98 %
02.04.2020 00:14 2,2 C 72 % 1016,5 hPa 0,0 l/m 0 min 0 min 0,000 mm 0,0 UV-I 0 W/m -2,3 C 2,2 C 8,0 km/h (2 Bft) 96 %
02.04.2020 00:12 2,2 C 72 % 1016,6 hPa 0,0 l/m 0 min 0 min 0,000 mm 0,0 UV-I 0 W/m -2,3 C 2,2 C 9,7 km/h (2 Bft) 96 %
02.04.2020 00:10 2,2 C 72 % 1016,6 hPa 0,0 l/m 0 min 0 min 0,000 mm 0,0 UV-I 0 W/m -2,3 C 2,2 C 8,0 km/h (2 Bft) 94 %
02.04.2020 00:08 2,3 C 72 % 1016,6 hPa 0,0 l/m 0 min 0 min 0,000 mm 0,0 UV-I 0 W/m -2,2 C 2,3 C 8,0 km/h (2 Bft) 96 %
02.04.2020 00:06 2,3 C 72 % 1016,6 hPa 0,0 l/m 0 min 0 min 0,000 mm 0,0 UV-I 0 W/m -2,2 C 2,3 C 1,6 km/h (1 Bft) 96 %
02.04.2020 00:04 2,4 C 72 % 1016,6 hPa 0,0 l/m 0 min 0 min 0,000 mm 0,0 UV-I 0 W/m -2,1 C 2,4 C 6,4 km/h (2 Bft) 96 %
02.04.2020 00:00 2,5 C 71 % 1016,7 hPa 0,0 l/m 0 min 0 min 0,000 mm 0,0 UV-I 0 W/m -2,2 C 2,5 C 1,6 km/h (1 Bft) 96 %
01.04.2020 23:58 2,5 C 71 % 1016,6 hPa 0,0 l/m 0 min 0 min 0,000 mm 0,0 UV-I 0 W/m -2,2 C 2,5 C 0,0 km/h (0 Bft) 96 %
01.04.2020 23:56 2,6 C 71 % 1016,7 hPa 0,0 l/m 0 min 0 min 0,000 mm 0,0 UV-I 0 W/m -2,1 C 2,6 C 0,0 km/h (0 Bft) 96 %
01.04.2020 23:54 2,6 C 71 % 1016,6 hPa 0,0 l/m 0 min 0 min 0,000 mm 0,0 UV-I 0 W/m -2,1 C 2,6 C 0,0 km/h (0 Bft) 94 %
01.04.2020 23:52 2,7 C 71 % 1016,7 hPa 0,0 l/m 0 min 0 min 0,000 mm 0,0 UV-I 0 W/m -2,0 C 2,7 C 0,0 km/h (0 Bft) 94 %
01.04.2020 23:50 2,8 C 71 % 1016,7 hPa 0,0 l/m 0 min 0 min 0,000 mm 0,0 UV-I 0 W/m -1,9 C 2,8 C 0,0 km/h (0 Bft) 96 %
01.04.2020 23:48 2,8 C 70 % 1016,6 hPa 0,0 l/m 0 min 0 min 0,000 mm 0,0 UV-I 0 W/m -2,1 C 2,8 C 0,0 km/h (0 Bft) 96 %
01.04.2020 23:46 2,9 C 70 % 1016,6 hPa 0,0 l/m 0 min 0 min 0,000 mm 0,0 UV-I 0 W/m -2,0 C 2,9 C 0,0 km/h (0 Bft) 98 %
01.04.2020 23:44 3,0 C 70 % 1016,5 hPa 0,0 l/m 0 min 0 min 0,000 mm 0,0 UV-I 0 W/m -1,9 C 3,0 C 0,0 km/h (0 Bft) 96 %
01.04.2020 23:42 3,1 C 70 % 1016,6 hPa 0,0 l/m 0 min 0 min 0,000 mm 0,0 UV-I 0 W/m -1,8 C 3,1 C 0,0 km/h (0 Bft) 98 %
01.04.2020 23:40 3,1 C 69 % 1016,6 hPa 0,0 l/m 0 min 0 min 0,000 mm 0,0 UV-I 0 W/m -2,0 C 3,1 C 0,0 km/h (0 Bft) 98 %
01.04.2020 23:38 3,2 C 69 % 1016,7 hPa 0,0 l/m 0 min 0 min 0,000 mm 0,0 UV-I 0 W/m -1,9 C 3,2 C 0,0 km/h (0 Bft) 98 %
01.04.2020 23:36 3,2 C 69 % 1016,7 hPa 0,0 l/m 0 min 0 min 0,000 mm 0,0 UV-I 0 W/m -1,9 C 3,2 C 0,0 km/h (0 Bft) 93 %
01.04.2020 23:34 3,2 C 69 % 1016,7 hPa 0,0 l/m 0 min 0 min 0,000 mm 0,0 UV-I 0 W/m -1,9 C 3,2 C 0,0 km/h (0 Bft) 96 %
01.04.2020 23:32 3,2 C 69 % 1016,7 hPa 0,0 l/m 0 min 0 min 0,000 mm 0,0 UV-I 0 W/m -1,9 C 3,2 C 0,0 km/h (0 Bft) 94 %
01.04.2020 23:30 3,2 C 69 % 1016,7 hPa 0,0 l/m 0 min 0 min 0,000 mm 0,0 UV-I 0 W/m -1,9 C 3,2 C 0,0 km/h (0 Bft) 98 %
01.04.2020 23:28 3,3 C 69 % 1016,7 hPa 0,0 l/m 0 min 0 min 0,000 mm 0,0 UV-I 0 W/m -1,8 C 3,3 C 0,0 km/h (0 Bft) 96 %
01.04.2020 23:26 3,3 C 69 % 1016,6 hPa 0,0 l/m 0 min 0 min 0,000 mm 0,0 UV-I 0 W/m -1,8 C 3,3 C 0,0 km/h (0 Bft) 94 %
01.04.2020 23:24 3,3 C 69 % 1016,6 hPa 0,0 l/m 0 min 0 min 0,000 mm 0,0 UV-I 0 W/m -1,8 C 3,3 C 0,0 km/h (0 Bft) 96 %
01.04.2020 23:22 3,3 C 69 % 1016,6 hPa 0,0 l/m 0 min 0 min 0,000 mm 0,0 UV-I 0 W/m -1,8 C 3,3 C 0,0 km/h (0 Bft) 96 %
01.04.2020 23:20 3,3 C 69 % 1016,6 hPa 0,0 l/m 0 min 0 min 0,000 mm 0,0 UV-I 0 W/m -1,8 C 3,3 C 6,4 km/h (2 Bft) 96 %
01.04.2020 23:18 3,3 C 69 % 1016,6 hPa 0,0 l/m 0 min 0 min 0,000 mm 0,0 UV-I 0 W/m -1,8 C 3,3 C 0,0 km/h (0 Bft) 96 %
01.04.2020 23:16 3,3 C 69 % 1016,6 hPa 0,0 l/m 0 min 0 min 0,000 mm 0,0 UV-I 0 W/m -1,8 C 3,3 C 0,0 km/h (0 Bft) 94 %
01.04.2020 23:14 3,4 C 68 % 1016,6 hPa 0,0 l/m 0 min 0 min 0,000 mm 0,0 UV-I 0 W/m -1,9 C 3,4 C 0,0 km/h (0 Bft) 89 %
01.04.2020 23:12 3,4 C 68 % 1016,6 hPa 0,0 l/m 0 min 0 min 0,000 mm 0,0 UV-I 0 W/m -1,9 C 3,4 C 1,6 km/h (1 Bft) 96 %
01.04.2020 23:10 3,4 C 68 % 1016,6 hPa 0,0 l/m 0 min 0 min 0,000 mm 0,0 UV-I 0 W/m -1,9 C 3,4 C 1,6 km/h (1 Bft) 96 %
01.04.2020 23:08 3,4 C 68 % 1016,5 hPa 0,0 l/m 0 min 0 min 0,000 mm 0,0 UV-I 0 W/m -1,9 C 3,4 C 0,0 km/h (0 Bft) 94 %
01.04.2020 23:06 3,4 C 68 % 1016,6 hPa 0,0 l/m 0 min 0 min 0,000 mm 0,0 UV-I 0 W/m -1,9 C 3,4 C 4,8 km/h (1 Bft) 98 %
01.04.2020 23:04 3,5 C 68 % 1016,5 hPa 0,0 l/m 0 min 0 min 0,000 mm 0,0 UV-I 0 W/m -1,8 C 3,5 C 3,2 km/h (1 Bft) 91 %
01.04.2020 23:00 3,6 C 68 % 1016,5 hPa 0,0 l/m 0 min 0 min 0,000 mm 0,0 UV-I 0 W/m -1,7 C 3,6 C 6,4 km/h (2 Bft) 96 %
01.04.2020 22:58 3,6 C 68 % 1016,5 hPa 0,0 l/m 0 min 0 min 0,000 mm 0,0 UV-I 0 W/m -1,7 C 3,6 C 4,8 km/h (1 Bft) 94 %
01.04.2020 22:56 3,7 C 67 % 1016,6 hPa 0,0 l/m 0 min 0 min 0,000 mm 0,0 UV-I 0 W/m -1,8 C 3,7 C 6,4 km/h (2 Bft) 98 %
01.04.2020 22:54 3,7 C 67 % 1016,6 hPa 0,0 l/m 0 min 0 min 0,000 mm 0,0 UV-I 0 W/m -1,8 C 3,7 C 6,4 km/h (2 Bft) 98 %
01.04.2020 22:52 3,8 C 67 % 1016,6 hPa 0,0 l/m 0 min 0 min 0,000 mm 0,0 UV-I 0 W/m -1,8 C 3,8 C 4,8 km/h (1 Bft) 98 %
01.04.2020 22:50 3,8 C 67 % 1016,6 hPa 0,0 l/m 0 min 0 min 0,000 mm 0,0 UV-I 0 W/m -1,8 C 3,8 C 4,8 km/h (1 Bft) 96 %
01.04.2020 22:48 3,8 C 67 % 1016,6 hPa 0,0 l/m 0 min 0 min 0,000 mm 0,0 UV-I 0 W/m -1,8 C 3,8 C 0,0 km/h (0 Bft) 96 %
01.04.2020 22:46 3,9 C 67 % 1016,5 hPa 0,0 l/m 0 min 0 min 0,000 mm 0,0 UV-I 0 W/m -1,7 C 3,9 C 0,0 km/h (0 Bft) 98 %
01.04.2020 22:44 3,9 C 67 % 1016,6 hPa 0,0 l/m 0 min 0 min 0,000 mm 0,0 UV-I 0 W/m -1,7 C 3,9 C 0,0 km/h (0 Bft) 98 %
01.04.2020 22:42 4,0 C 66 % 1016,5 hPa 0,0 l/m 0 min 0 min 0,000 mm 0,0 UV-I 0 W/m -1,8 C 4,0 C 0,0 km/h (0 Bft) 98 %
01.04.2020 22:40 4,1 C 66 % 1016,5 hPa 0,0 l/m 0 min 0 min 0,000 mm 0,0 UV-I 0 W/m -1,7 C 4,1 C 4,8 km/h (1 Bft) 98 %
01.04.2020 22:38 4,2 C 66 % 1016,5 hPa 0,0 l/m 0 min 0 min 0,000 mm 0,0 UV-I 0 W/m -1,6 C 4,2 C 6,4 km/h (2 Bft) 98 %
01.04.2020 22:36 4,2 C 66 % 1016,5 hPa 0,0 l/m 0 min 0 min 0,000 mm 0,0 UV-I 0 W/m -1,6 C 4,2 C 0,0 km/h (0 Bft) 98 %
01.04.2020 22:34 4,2 C 66 % 1016,6 hPa 0,0 l/m 0 min 0 min 0,000 mm 0,0 UV-I 0 W/m -1,6 C 4,2 C 1,6 km/h (1 Bft) 100 %
01.04.2020 22:32 4,3 C 66 % 1016,6 hPa 0,0 l/m 0 min 0 min 0,000 mm 0,0 UV-I 0 W/m -1,5 C 4,3 C 8,0 km/h (2 Bft) 100 %
01.04.2020 22:30 4,3 C 66 % 1016,5 hPa 0,0 l/m 0 min 0 min 0,000 mm 0,0 UV-I 0 W/m -1,5 C 4,3 C 3,2 km/h (1 Bft) 98 %
01.04.2020 22:28 4,3 C 65 % 1016,6 hPa 0,0 l/m 0 min 0 min 0,000 mm 0,0 UV-I 0 W/m -1,7 C 4,3 C 0,0 km/h (0 Bft) 100 %
01.04.2020 22:26 4,4 C 66 % 1016,6 hPa 0,0 l/m 0 min 0 min 0,000 mm 0,0 UV-I 0 W/m -1,4 C 4,4 C 4,8 km/h (1 Bft) 98 %
01.04.2020 22:24 4,4 C 65 % 1016,6 hPa 0,0 l/m 0 min 0 min 0,000 mm 0,0 UV-I 0 W/m -1,6 C 4,4 C 0,0 km/h (0 Bft) 100 %
01.04.2020 22:22 4,5 C 65 % 1016,7 hPa 0,0 l/m 0 min 0 min 0,000 mm 0,0 UV-I 0 W/m -1,5 C 4,5 C 1,6 km/h (1 Bft) 100 %
01.04.2020 22:20 4,5 C 65 % 1016,7 hPa 0,0 l/m 0 min 0 min 0,000 mm 0,0 UV-I 0 W/m -1,5 C 4,5 C 0,0 km/h (0 Bft) 100 %
01.04.2020 22:18 4,6 C 65 % 1016,7 hPa 0,0 l/m 0 min 0 min 0,000 mm 0,0 UV-I 0 W/m -1,4 C 4,6 C 0,0 km/h (0 Bft) 100 %
01.04.2020 22:16 4,6 C 65 % 1016,7 hPa 0,0 l/m 0 min 0 min 0,000 mm 0,0 UV-I 0 W/m -1,4 C 4,6 C 0,0 km/h (0 Bft) 98 %
01.04.2020 22:14 4,7 C 65 % 1016,7 hPa 0,0 l/m 0 min 0 min 0,000 mm 0,0 UV-I 0 W/m -1,3 C 4,7 C 4,8 km/h (1 Bft) 100 %
01.04.2020 22:12 4,7 C 65 % 1016,8 hPa 0,0 l/m 0 min 0 min 0,000 mm 0,0 UV-I 0 W/m -1,3 C 4,7 C 3,2 km/h (1 Bft) 100 %
01.04.2020 22:10 4,7 C 64 % 1016,8 hPa 0,0 l/m 0 min 0 min 0,000 mm 0,0 UV-I 0 W/m -1,5 C 4,7 C 0,0 km/h (0 Bft) 100 %
01.04.2020 22:08 4,7 C 64 % 1016,8 hPa 0,0 l/m 0 min 0 min 0,000 mm 0,0 UV-I 0 W/m -1,5 C 4,7 C 1,6 km/h (1 Bft) 98 %
01.04.2020 22:06 4,8 C 64 % 1016,8 hPa 0,0 l/m 0 min 0 min 0,000 mm 0,0 UV-I 0 W/m -1,4 C 4,8 C 0,0 km/h (0 Bft) 100 %
01.04.2020 22:04 4,8 C 64 % 1016,8 hPa 0,0 l/m 0 min 0 min 0,000 mm 0,0 UV-I 0 W/m -1,4 C 4,8 C 0,0 km/h (0 Bft) 99 %
01.04.2020 22:00 4,9 C 64 % 1016,8 hPa 0,0 l/m 0 min 0 min 0,000 mm 0,0 UV-I 0 W/m -1,3 C 4,9 C 3,2 km/h (1 Bft) 100 %
01.04.2020 21:58 4,9 C 64 % 1016,8 hPa 0,0 l/m 0 min 0 min 0,000 mm 0,0 UV-I 0 W/m -1,3 C 4,9 C 0,0 km/h (0 Bft) 100 %
01.04.2020 21:56 4,9 C 64 % 1016,8 hPa 0,0 l/m 0 min 0 min 0,000 mm 0,0 UV-I 0 W/m -1,3 C 4,9 C 0,0 km/h (0 Bft) 100 %
01.04.2020 21:54 5,0 C 64 % 1016,8 hPa 0,0 l/m 0 min 0 min 0,000 mm 0,0 UV-I 0 W/m -1,2 C 5,0 C 0,0 km/h (0 Bft) 98 %
01.04.2020 21:52 5,0 C 64 % 1016,8 hPa 0,0 l/m 0 min 0 min 0,000 mm 0,0 UV-I 0 W/m -1,2 C 5,0 C 1,6 km/h (1 Bft) 96 %
01.04.2020 21:50 5,1 C 64 % 1016,9 hPa 0,0 l/m 0 min 0 min 0,000 mm 0,0 UV-I 0 W/m -1,1 C 5,1 C 0,0 km/h (0 Bft) 96 %
01.04.2020 21:48 5,1 C 64 % 1016,9 hPa 0,0 l/m 0 min 0 min 0,000 mm 0,0 UV-I 0 W/m -1,1 C 5,1 C 0,0 km/h (0 Bft) 98 %
01.04.2020 21:46 5,1 C 64 % 1016,9 hPa 0,0 l/m 0 min 0 min 0,000 mm 0,0 UV-I 0 W/m -1,1 C 5,1 C 0,0 km/h (0 Bft) 98 %
01.04.2020 21:44 5,1 C 64 % 1016,9 hPa 0,0 l/m 0 min 0 min 0,000 mm 0,0 UV-I 0 W/m -1,1 C 5,1 C 0,0 km/h (0 Bft) 96 %
01.04.2020 21:42 5,2 C 64 % 1016,9 hPa 0,0 l/m 0 min 0 min 0,000 mm 0,0 UV-I 0 W/m -1,0 C 5,2 C 0,0 km/h (0 Bft) 98 %
01.04.2020 21:40 5,2 C 63 % 1016,9 hPa 0,0 l/m 0 min 0 min 0,000 mm 0,0 UV-I 0 W/m -1,3 C 5,2 C 0,0 km/h (0 Bft) 98 %
01.04.2020 21:38 5,2 C 63 % 1016,9 hPa 0,0 l/m 0 min 0 min 0,000 mm 0,0 UV-I 0 W/m -1,3 C 5,2 C 0,0 km/h (0 Bft) 96 %
01.04.2020 21:36 5,3 C 63 % 1016,9 hPa 0,0 l/m 0 min 0 min 0,000 mm 0,0 UV-I 0 W/m -1,2 C 5,3 C 0,0 km/h (0 Bft) 96 %
01.04.2020 21:34 5,3 C 63 % 1016,9 hPa 0,0 l/m 0 min 0 min 0,000 mm 0,0 UV-I 0 W/m -1,2 C 5,3 C 1,6 km/h (1 Bft) 94 %
01.04.2020 21:32 5,4 C 63 % 1016,9 hPa 0,0 l/m 0 min 0 min 0,000 mm 0,0 UV-I 0 W/m -1,1 C 5,4 C 0,0 km/h (0 Bft) 93 %
01.04.2020 21:30 5,4 C 63 % 1016,9 hPa 0,0 l/m 0 min 0 min 0,000 mm 0,0 UV-I 0 W/m -1,1 C 5,4 C 0,0 km/h (0 Bft) 96 %
01.04.2020 21:28 5,4 C 62 % 1016,9 hPa 0,0 l/m 0 min 0 min 0,000 mm 0,0 UV-I 0 W/m -1,3 C 5,4 C 0,0 km/h (0 Bft) 94 %
01.04.2020 21:26 5,5 C 62 % 1016,9 hPa 0,0 l/m 0 min 0 min 0,000 mm 0,0 UV-I 0 W/m -1,2 C 5,5 C 0,0 km/h (0 Bft) 96 %
01.04.2020 21:24 5,6 C 62 % 1016,8 hPa 0,0 l/m 0 min 0 min 0,000 mm 0,0 UV-I 0 W/m -1,1 C 5,6 C 0,0 km/h (0 Bft) 96 %
01.04.2020 21:22 5,6 C 61 % 1016,9 hPa 0,0 l/m 0 min 0 min 0,000 mm 0,0 UV-I 0 W/m -1,3 C 5,6 C 0,0 km/h (0 Bft) 96 %
01.04.2020 21:20 5,6 C 61 % 1016,9 hPa 0,0 l/m 0 min 0 min 0,000 mm 0,0 UV-I 0 W/m -1,3 C 5,6 C 0,0 km/h (0 Bft) 96 %
01.04.2020 21:18 5,7 C 61 % 1016,9 hPa 0,0 l/m 0 min 0 min 0,000 mm 0,0 UV-I 0 W/m -1,2 C 5,7 C 0,0 km/h (0 Bft) 94 %
01.04.2020 21:16 5,7 C 61 % 1016,8 hPa 0,0 l/m 0 min 0 min 0,000 mm 0,0 UV-I 0 W/m -1,2 C 5,7 C 0,0 km/h (0 Bft) 96 %
01.04.2020 21:14 5,7 C 61 % 1016,8 hPa 0,0 l/m 0 min 0 min 0,000 mm 0,0 UV-I 0 W/m -1,2 C 5,7 C 0,0 km/h (0 Bft) 96 %
01.04.2020 21:12 5,8 C 61 % 1016,8 hPa 0,0 l/m 0 min 0 min 0,000 mm 0,0 UV-I 0 W/m -1,1 C 5,8 C 0,0 km/h (0 Bft) 96 %
01.04.2020 21:10 5,9 C 61 % 1016,8 hPa 0,0 l/m 0 min 0 min 0,000 mm 0,0 UV-I 0 W/m -1,0 C 5,9 C 0,0 km/h (0 Bft) 98 %
01.04.2020 21:08 5,9 C 60 % 1016,8 hPa 0,0 l/m 0 min 0 min 0,000 mm 0,0 UV-I 0 W/m -1,3 C 5,9 C 0,0 km/h (0 Bft) 98 %
01.04.2020 21:06 6,0 C 60 % 1016,8 hPa 0,0 l/m 0 min 0 min 0,000 mm 0,0 UV-I 0 W/m -1,2 C 6,0 C 0,0 km/h (0 Bft) 100 %
01.04.2020 21:04 6,1 C 60 % 1016,8 hPa 0,0 l/m 0 min 0 min 0,000 mm 0,0 UV-I 0 W/m -1,1 C 6,1 C 0,0 km/h (0 Bft) 100 %
01.04.2020 21:00 6,3 C 60 % 1016,8 hPa 0,0 l/m 0 min 0 min 0,000 mm 0,0 UV-I 0 W/m -0,9 C 6,3 C 0,0 km/h (0 Bft) 100 %
01.04.2020 20:58 6,4 C 60 % 1016,8 hPa 0,0 l/m 0 min 0 min 0,000 mm 0,0 UV-I 0 W/m -0,8 C 6,4 C 0,0 km/h (0 Bft) 100 %
01.04.2020 20:56 6,5 C 59 % 1016,8 hPa 0,0 l/m 0 min 0 min 0,000 mm 0,0 UV-I 0 W/m -0,9 C 6,5 C 0,0 km/h (0 Bft) 100 %
01.04.2020 20:54 6,6 C 59 % 1016,8 hPa 0,0 l/m 0 min 0 min 0,000 mm 0,0 UV-I 0 W/m -0,8 C 6,6 C 0,0 km/h (0 Bft) 98 %
01.04.2020 20:52 6,7 C 59 % 1016,8 hPa 0,0 l/m 0 min 0 min 0,000 mm 0,0 UV-I 0 W/m -0,7 C 6,7 C 0,0 km/h (0 Bft) 100 %
01.04.2020 20:50 6,7 C 59 % 1016,8 hPa 0,0 l/m 0 min 0 min 0,000 mm 0,0 UV-I 0 W/m -0,7 C 6,7 C 0,0 km/h (0 Bft) 100 %
01.04.2020 20:48 6,8 C 59 % 1016,8 hPa 0,0 l/m 0 min 0 min 0,000 mm 0,0 UV-I 0 W/m -0,6 C 6,8 C 0,0 km/h (0 Bft) 100 %
01.04.2020 20:46 6,9 C 58 % 1016,8 hPa 0,0 l/m 0 min 0 min 0,000 mm 0,0 UV-I 0 W/m -0,8 C 6,9 C 0,0 km/h (0 Bft) 100 %
01.04.2020 20:44 7,0 C 58 % 1016,8 hPa 0,0 l/m 0 min 0 min 0,000 mm 0,0 UV-I 0 W/m -0,7 C 7,0 C 0,0 km/h (0 Bft) 100 %
01.04.2020 20:42 7,1 C 57 % 1016,8 hPa 0,0 l/m 0 min 0 min 0,000 mm 0,0 UV-I 0 W/m -0,8 C 7,1 C 0,0 km/h (0 Bft) 100 %
01.04.2020 20:40 7,2 C 57 % 1016,8 hPa 0,0 l/m 0 min 0 min 0,000 mm 0,0 UV-I 0 W/m -0,7 C 7,2 C 0,0 km/h (0 Bft) 100 %
01.04.2020 20:38 7,2 C 57 % 1016,8 hPa 0,0 l/m 0 min 0 min 0,000 mm 0,0 UV-I 0 W/m -0,7 C 7,2 C 0,0 km/h (0 Bft) 100 %
01.04.2020 20:36 7,3 C 57 % 1016,8 hPa 0,0 l/m 0 min 0 min 0,000 mm 0,0 UV-I 0 W/m -0,6 C 7,3 C 0,0 km/h (0 Bft) 98 %
01.04.2020 20:34 7,3 C 56 % 1016,8 hPa 0,0 l/m 0 min 0 min 0,000 mm 0,0 UV-I 0 W/m -0,9 C 7,3 C 0,0 km/h (0 Bft) 100 %
01.04.2020 20:32 7,4 C 56 % 1016,8 hPa 0,0 l/m 0 min 0 min 0,000 mm 0,0 UV-I 0 W/m -0,8 C 7,4 C 0,0 km/h (0 Bft) 98 %
01.04.2020 20:30 7,5 C 56 % 1016,8 hPa 0,0 l/m 0 min 0 min 0,000 mm 0,0 UV-I 0 W/m -0,7 C 7,5 C 0,0 km/h (0 Bft) 100 %
01.04.2020 20:28 7,6 C 56 % 1016,8 hPa 0,0 l/m 0 min 0 min 0,000 mm 0,0 UV-I 0 W/m -0,6 C 7,6 C 0,0 km/h (0 Bft) 98 %
01.04.2020 20:26 7,7 C 56 % 1016,8 hPa 0,0 l/m 0 min 0 min 0,000 mm 0,0 UV-I 0 W/m -0,5 C 7,7 C 0,0 km/h (0 Bft) 100 %
01.04.2020 20:24 7,7 C 56 % 1016,8 hPa 0,0 l/m 0 min 0 min 0,000 mm 0,0 UV-I 0 W/m -0,5 C 7,7 C 0,0 km/h (0 Bft) 100 %
01.04.2020 20:22 7,8 C 56 % 1016,8 hPa 0,0 l/m 0 min 0 min 0,000 mm 0,0 UV-I 0 W/m -0,4 C 7,8 C 0,0 km/h (0 Bft) 100 %
01.04.2020 20:20 7,9 C 55 % 1016,8 hPa 0,0 l/m 0 min 0 min 0,000 mm 0,0 UV-I 2 W/m -0,6 C 7,9 C 0,0 km/h (0 Bft) 100 %
01.04.2020 20:18 7,9 C 55 % 1016,7 hPa 0,0 l/m 0 min 0 min 0,000 mm 0,0 UV-I 3 W/m -0,6 C 7,9 C 0,0 km/h (0 Bft) 100 %
01.04.2020 20:16 8,0 C 55 % 1016,8 hPa 0,0 l/m 0 min 0 min 0,000 mm 0,0 UV-I 4 W/m -0,5 C 8,0 C 0,0 km/h (0 Bft) 96 %
01.04.2020 20:14 8,1 C 55 % 1016,7 hPa 0,0 l/m 0 min 0 min 0,000 mm 0,0 UV-I 6 W/m -0,4 C 8,1 C 0,0 km/h (0 Bft) 100 %
01.04.2020 20:12 8,2 C 55 % 1016,8 hPa 0,0 l/m 0 min 0 min 0,000 mm 0,0 UV-I 6 W/m -0,3 C 8,2 C 0,0 km/h (0 Bft) 98 %
01.04.2020 20:10 8,2 C 55 % 1016,7 hPa 0,0 l/m 0 min 0 min 0,000 mm 0,0 UV-I 7 W/m -0,3 C 8,2 C 0,0 km/h (0 Bft) 96 %
01.04.2020 20:08 8,3 C 55 % 1016,7 hPa 0,0 l/m 0 min 0 min 0,000 mm 0,0 UV-I 8 W/m -0,2 C 8,3 C 0,0 km/h (0 Bft) 94 %
01.04.2020 20:06 8,4 C 54 % 1016,7 hPa 0,0 l/m 0 min 0 min 0,000 mm 0,0 UV-I 9 W/m -0,4 C 8,4 C 0,0 km/h (0 Bft) 94 %
01.04.2020 20:04 8,4 C 54 % 1016,8 hPa 0,0 l/m 0 min 0 min 0,025 mm 0,0 UV-I 11 W/m -0,4 C 8,4 C 0,0 km/h (0 Bft) 95 %
01.04.2020 20:00 8,6 C 53 % 1016,8 hPa 0,0 l/m 0 min 0 min 0,000 mm 0,0 UV-I 13 W/m -0,4 C 8,6 C 0,0 km/h (0 Bft) 98 %
01.04.2020 19:58 8,6 C 52 % 1016,8 hPa 0,0 l/m 0 min 0 min 0,000 mm 0,0 UV-I 14 W/m -0,7 C 8,6 C 0,0 km/h (0 Bft) 98 %
01.04.2020 19:56 8,7 C 52 % 1016,8 hPa 0,0 l/m 0 min 0 min 0,000 mm 0,0 UV-I 15 W/m -0,6 C 8,7 C 0,0 km/h (0 Bft) 98 %
01.04.2020 19:54 8,7 C 52 % 1016,8 hPa 0,0 l/m 0 min 0 min 0,000 mm 0,0 UV-I 17 W/m -0,6 C 8,7 C 0,0 km/h (0 Bft) 98 %
01.04.2020 19:52 8,8 C 52 % 1016,8 hPa 0,0 l/m 0 min 0 min 0,000 mm 0,0 UV-I 18 W/m -0,5 C 8,8 C 0,0 km/h (0 Bft) 94 %
01.04.2020 19:50 8,9 C 52 % 1016,8 hPa 0,0 l/m 0 min 0 min 0,000 mm 0,0 UV-I 20 W/m -0,4 C 8,9 C 0,0 km/h (0 Bft) 98 %
01.04.2020 19:48 9,0 C 52 % 1016,8 hPa 0,0 l/m 0 min 0 min 0,000 mm 0,0 UV-I 21 W/m -0,3 C 9,0 C 0,0 km/h (0 Bft) 100 %
01.04.2020 19:46 9,1 C 51 % 1016,8 hPa 0,0 l/m 0 min 0 min 0,000 mm 0,0 UV-I 22 W/m -0,5 C 9,1 C 0,0 km/h (0 Bft) 98 %
01.04.2020 19:44 9,1 C 51 % 1016,9 hPa 0,0 l/m 0 min 0 min 0,000 mm 0,0 UV-I 23 W/m -0,5 C 9,1 C 0,0 km/h (0 Bft) 100 %
01.04.2020 19:42 9,2 C 51 % 1016,9 hPa 0,0 l/m 0 min 0 min 0,000 mm 0,0 UV-I 25 W/m -0,4 C 9,2 C 0,0 km/h (0 Bft) 98 %
01.04.2020 19:40 9,2 C 51 % 1017,0 hPa 0,0 l/m 0 min 0 min 0,000 mm 0,0 UV-I 27 W/m -0,4 C 9,2 C 0,0 km/h (0 Bft) 98 %
01.04.2020 19:38 9,3 C 51 % 1016,9 hPa 0,0 l/m 0 min 0 min 0,000 mm 0,0 UV-I 27 W/m -0,3 C 9,3 C 0,0 km/h (0 Bft) 100 %
01.04.2020 19:36 9,3 C 50 % 1016,9 hPa 0,0 l/m 0 min 0 min 0,000 mm 0,0 UV-I 28 W/m -0,6 C 9,3 C 0,0 km/h (0 Bft) 100 %
01.04.2020 19:34 9,3 C 51 % 1017,0 hPa 0,0 l/m 0 min 0 min 0,000 mm 0,0 UV-I 30 W/m -0,3 C 9,3 C 0,0 km/h (0 Bft) 94 %
01.04.2020 19:32 9,4 C 51 % 1017,0 hPa 0,0 l/m 0 min 0 min 0,000 mm 0,0 UV-I 31 W/m -0,2 C 9,4 C 0,0 km/h (0 Bft) 98 %
01.04.2020 19:30 9,4 C 50 % 1017,0 hPa 0,0 l/m 0 min 0 min 0,000 mm 0,0 UV-I 34 W/m -0,5 C 9,4 C 0,0 km/h (0 Bft) 96 %
01.04.2020 19:28 9,4 C 50 % 1017,0 hPa 0,0 l/m 0 min 0 min 0,000 mm 0,0 UV-I 33 W/m -0,5 C 9,4 C 0,0 km/h (0 Bft) 98 %
01.04.2020 19:26 9,4 C 50 % 1017,0 hPa 0,0 l/m 0 min 0 min 0,000 mm 0,0 UV-I 34 W/m -0,5 C 9,4 C 1,6 km/h (1 Bft) 98 %
01.04.2020 19:24 9,4 C 50 % 1017,0 hPa 0,0 l/m 0 min 0 min 0,000 mm 0,0 UV-I 35 W/m -0,5 C 9,4 C 0,0 km/h (0 Bft) 96 %
01.04.2020 19:22 9,4 C 50 % 1017,0 hPa 0,0 l/m 0 min 0 min 0,000 mm 0,0 UV-I 35 W/m -0,5 C 9,4 C 0,0 km/h (0 Bft) 98 %
01.04.2020 19:20 9,4 C 50 % 1017,0 hPa 0,0 l/m 0 min 0 min 0,000 mm 0,0 UV-I 37 W/m -0,5 C 9,4 C 1,6 km/h (1 Bft) 98 %
01.04.2020 19:18 9,4 C 50 % 1017,0 hPa 0,0 l/m 0 min 0 min 0,000 mm 0,0 UV-I 40 W/m -0,5 C 9,4 C 0,0 km/h (0 Bft) 98 %
01.04.2020 19:16 9,4 C 50 % 1017,0 hPa 0,0 l/m 0 min 0 min 0,000 mm 0,0 UV-I 39 W/m -0,5 C 9,4 C 0,0 km/h (0 Bft) 98 %
01.04.2020 19:14 9,4 C 50 % 1017,0 hPa 0,0 l/m 0 min 0 min 0,000 mm 0,0 UV-I 40 W/m -0,5 C 9,4 C 1,6 km/h (1 Bft) 98 %
01.04.2020 19:12 9,4 C 50 % 1017,0 hPa 0,0 l/m 0 min 0 min 0,000 mm 0,0 UV-I 42 W/m -0,5 C 9,4 C 0,0 km/h (0 Bft) 96 %
01.04.2020 19:10 9,4 C 50 % 1017,0 hPa 0,0 l/m 0 min 0 min 0,000 mm 0,0 UV-I 42 W/m -0,5 C 9,4 C 0,0 km/h (0 Bft) 96 %
01.04.2020 19:08 9,3 C 50 % 1017,1 hPa 0,0 l/m 0 min 0 min 0,000 mm 0,5 UV-I 53 W/m -0,6 C 9,3 C 0,0 km/h (0 Bft) 96 %
01.04.2020 19:06 9,3 C 50 % 1017,1 hPa 0,0 l/m 0 min 0 min 0,000 mm 0,7 UV-I 90 W/m -0,6 C 9,3 C 0,0 km/h (0 Bft) 98 %
01.04.2020 19:04 9,3 C 50 % 1017,1 hPa 0,0 l/m 2 min 0 min 0,102 mm 0,7 UV-I 103 W/m -0,6 C 9,3 C 0,0 km/h (0 Bft) 97 %
01.04.2020 19:00 9,4 C 49 % 1017,1 hPa 0,0 l/m 2 min 0 min 0,000 mm 0,7 UV-I 112 W/m -0,8 C 9,4 C 0,0 km/h (0 Bft) 96 %
01.04.2020 18:58 9,4 C 48 % 1017,1 hPa 0,0 l/m 2 min 0 min 0,000 mm 0,7 UV-I 120 W/m -1,0 C 9,4 C 8,0 km/h (2 Bft) 98 %
01.04.2020 18:56 9,4 C 48 % 1017,1 hPa 0,0 l/m 2 min 0 min 0,000 mm 0,7 UV-I 125 W/m -1,0 C 9,4 C 11,3 km/h (2 Bft) 98 %
01.04.2020 18:54 9,4 C 48 % 1017,1 hPa 0,0 l/m 2 min 0 min 0,000 mm 0,7 UV-I 131 W/m -1,0 C 9,4 C 8,0 km/h (2 Bft) 100 %
01.04.2020 18:52 9,5 C 48 % 1017,2 hPa 0,0 l/m 2 min 0 min 0,000 mm 0,7 UV-I 137 W/m -1,0 C 9,5 C 0,0 km/h (0 Bft) 100 %
01.04.2020 18:50 9,6 C 48 % 1017,1 hPa 0,0 l/m 2 min 0 min 0,000 mm 0,7 UV-I 143 W/m -0,9 C 9,6 C 4,8 km/h (1 Bft) 100 %
01.04.2020 18:48 9,6 C 48 % 1017,1 hPa 0,0 l/m 2 min 0 min 0,000 mm 0,8 UV-I 149 W/m -0,9 C 9,6 C 0,0 km/h (0 Bft) 96 %
01.04.2020 18:46 9,6 C 48 % 1017,2 hPa 0,0 l/m 2 min 0 min 0,000 mm 0,8 UV-I 156 W/m -0,9 C 9,6 C 0,0 km/h (0 Bft) 100 %
01.04.2020 18:44 9,6 C 48 % 1017,2 hPa 0,0 l/m 2 min 0 min 0,000 mm 0,8 UV-I 163 W/m -0,9 C 9,6 C 0,0 km/h (0 Bft) 98 %
01.04.2020 18:42 9,7 C 47 % 1017,2 hPa 0,0 l/m 2 min 0 min 0,000 mm 0,8 UV-I 171 W/m -1,1 C 9,7 C 0,0 km/h (0 Bft) 98 %
01.04.2020 18:40 9,7 C 47 % 1017,2 hPa 0,0 l/m 2 min 0 min 0,000 mm 0,8 UV-I 176 W/m -1,1 C 9,7 C 0,0 km/h (0 Bft) 91 %
01.04.2020 18:38 9,7 C 46 % 1017,2 hPa 0,0 l/m 2 min 0 min 0,000 mm 0,8 UV-I 184 W/m -1,3 C 9,7 C 0,0 km/h (0 Bft) 94 %
01.04.2020 18:36 9,7 C 46 % 1017,2 hPa 0,0 l/m 2 min 0 min 0,000 mm 0,9 UV-I 190 W/m -1,3 C 9,7 C 1,6 km/h (1 Bft) 96 %
01.04.2020 18:34 9,8 C 46 % 1017,3 hPa 0,0 l/m 2 min 0 min 0,000 mm 0,9 UV-I 197 W/m -1,3 C 9,8 C 6,4 km/h (2 Bft) 96 %
01.04.2020 18:32 9,8 C 46 % 1017,3 hPa 0,0 l/m 2 min 0 min 0,000 mm 0,9 UV-I 205 W/m -1,3 C 9,8 C 4,8 km/h (1 Bft) 96 %
01.04.2020 18:30 9,8 C 46 % 1017,3 hPa 0,0 l/m 2 min 0 min 0,000 mm 0,9 UV-I 211 W/m -1,3 C 9,8 C 8,0 km/h (2 Bft) 94 %
01.04.2020 18:28 9,9 C 46 % 1017,3 hPa 0,0 l/m 2 min 0 min 0,000 mm 0,9 UV-I 219 W/m -1,2 C 9,9 C 6,4 km/h (2 Bft) 96 %
01.04.2020 18:26 9,9 C 45 % 1017,3 hPa 0,0 l/m 2 min 0 min 0,000 mm 0,9 UV-I 225 W/m -1,5 C 9,9 C 8,0 km/h (2 Bft) 96 %
01.04.2020 18:24 10,0 C 46 % 1017,3 hPa 0,0 l/m 2 min 0 min 0,000 mm 1,0 UV-I 235 W/m -1,1 C 10,0 C 8,0 km/h (2 Bft) 96 %
01.04.2020 18:20 10,2 C 47 % 1017,4 hPa 0,0 l/m 2 min 0 min 0,000 mm 1,0 UV-I 244 W/m -0,6 C 10,2 C 1,6 km/h (1 Bft) 96 %
01.04.2020 18:18 10,2 C 47 % 1017,4 hPa 0,0 l/m 2 min 0 min 0,000 mm 1,0 UV-I 247 W/m -0,6 C 10,2 C 6,4 km/h (2 Bft) 96 %
01.04.2020 18:16 10,3 C 46 % 1017,4 hPa 0,0 l/m 2 min 0 min 0,000 mm 1,0 UV-I 254 W/m -0,8 C 10,3 C 6,4 km/h (2 Bft) 96 %
01.04.2020 18:14 10,3 C 46 % 1017,4 hPa 0,0 l/m 2 min 0 min 0,000 mm 1,0 UV-I 259 W/m -0,8 C 10,3 C 12,9 km/h (3 Bft) 94 %
01.04.2020 18:12 10,4 C 47 % 1017,4 hPa 0,0 l/m 2 min 0 min 0,000 mm 1,1 UV-I 263 W/m -0,4 C 10,4 C 6,4 km/h (2 Bft) 93 %
01.04.2020 18:10 10,5 C 47 % 1017,4 hPa 0,0 l/m 2 min 0 min 0,000 mm 1,1 UV-I 267 W/m -0,3 C 10,5 C 6,4 km/h (2 Bft) 96 %
01.04.2020 18:08 10,6 C 49 % 1017,4 hPa 0,0 l/m 2 min 0 min 0,000 mm 1,1 UV-I 273 W/m 0,3 C 10,6 C 0,0 km/h (0 Bft) 96 %
01.04.2020 18:06 10,7 C 46 % 1017,4 hPa 0,0 l/m 2 min 0 min 0,000 mm 1,1 UV-I 279 W/m -0,4 C 10,7 C 11,3 km/h (2 Bft) 96 %
01.04.2020 18:04 10,7 C 47 % 1017,4 hPa 0,0 l/m 2 min 0 min 0,203 mm 1,1 UV-I 286 W/m -0,1 C 10,7 C 11,3 km/h (2 Bft) 93 %
01.04.2020 18:00 10,8 C 46 % 1017,4 hPa 0,0 l/m 2 min 0 min 0,000 mm 1,2 UV-I 294 W/m -0,3 C 10,8 C 6,4 km/h (2 Bft) 98 %
01.04.2020 17:58 10,9 C 46 % 1017,4 hPa 0,0 l/m 2 min 0 min 0,000 mm 1,2 UV-I 300 W/m -0,3 C 10,9 C 12,9 km/h (3 Bft) 98 %
01.04.2020 17:56 10,9 C 46 % 1017,4 hPa 0,0 l/m 2 min 0 min 0,000 mm 1,2 UV-I 305 W/m -0,3 C 10,9 C 1,6 km/h (1 Bft) 91 %
01.04.2020 17:54 10,9 C 46 % 1017,4 hPa 0,0 l/m 2 min 0 min 0,000 mm 1,3 UV-I 311 W/m -0,3 C 10,9 C 4,8 km/h (1 Bft) 98 %
01.04.2020 17:52 10,9 C 46 % 1017,4 hPa 0,0 l/m 2 min 0 min 0,000 mm 1,3 UV-I 317 W/m -0,3 C 10,9 C 6,4 km/h (2 Bft) 98 %
01.04.2020 17:50 10,9 C 47 % 1017,4 hPa 0,0 l/m 2 min 0 min 0,000 mm 1,3 UV-I 321 W/m 0,0 C 10,9 C 9,7 km/h (2 Bft) 98 %
01.04.2020 17:48 10,9 C 47 % 1017,4 hPa 0,0 l/m 2 min 0 min 0,000 mm 1,3 UV-I 325 W/m 0,0 C 10,9 C 1,6 km/h (1 Bft) 98 %
01.04.2020 17:46 10,9 C 47 % 1017,4 hPa 0,0 l/m 2 min 0 min 0,000 mm 1,3 UV-I 329 W/m 0,0 C 10,9 C 8,0 km/h (2 Bft) 98 %
01.04.2020 17:44 10,9 C 47 % 1017,4 hPa 0,0 l/m 2 min 0 min 0,000 mm 1,3 UV-I 336 W/m 0,0 C 10,9 C 1,6 km/h (1 Bft) 98 %
01.04.2020 17:42 10,9 C 47 % 1017,4 hPa 0,0 l/m 2 min 0 min 0,000 mm 1,4 UV-I 341 W/m 0,0 C 10,9 C 9,7 km/h (2 Bft) 96 %
01.04.2020 17:40 10,9 C 47 % 1017,5 hPa 0,0 l/m 2 min 0 min 0,000 mm 1,4 UV-I 347 W/m 0,0 C 10,9 C 12,9 km/h (3 Bft) 96 %
01.04.2020 17:38 11,0 C 47 % 1017,5 hPa 0,0 l/m 2 min 0 min 0,000 mm 1,4 UV-I 351 W/m 0,1 C 11,0 C 9,7 km/h (2 Bft) 96 %
01.04.2020 17:36 11,1 C 48 % 1017,5 hPa 0,0 l/m 2 min 0 min 0,000 mm 1,4 UV-I 355 W/m 0,5 C 11,1 C 9,7 km/h (2 Bft) 96 %
01.04.2020 17:34 11,2 C 48 % 1017,6 hPa 0,0 l/m 2 min 0 min 0,000 mm 1,5 UV-I 358 W/m 0,6 C 11,2 C 6,4 km/h (2 Bft) 98 %
01.04.2020 17:32 11,2 C 48 % 1017,6 hPa 0,0 l/m 2 min 0 min 0,000 mm 1,5 UV-I 365 W/m 0,6 C 9,3 C 14,5 km/h (3 Bft) 96 %
01.04.2020 17:30 11,2 C 46 % 1017,6 hPa 0,0 l/m 2 min 0 min 0,000 mm 1,5 UV-I 371 W/m 0,0 C 9,3 C 19,3 km/h (3 Bft) 96 %
01.04.2020 17:28 11,2 C 47 % 1017,6 hPa 0,0 l/m 2 min 0 min 0,000 mm 1,5 UV-I 375 W/m 0,3 C 11,2 C 11,3 km/h (2 Bft) 94 %
01.04.2020 17:26 11,2 C 46 % 1017,6 hPa 0,0 l/m 2 min 0 min 0,000 mm 1,6 UV-I 381 W/m 0,0 C 11,2 C 8,0 km/h (2 Bft) 96 %
01.04.2020 17:24 11,2 C 46 % 1017,6 hPa 0,0 l/m 2 min 0 min 0,000 mm 1,6 UV-I 388 W/m 0,0 C 10,0 C 16,1 km/h (3 Bft) 96 %
01.04.2020 17:22 11,3 C 47 % 1017,6 hPa 0,0 l/m 2 min 0 min 0,000 mm 1,6 UV-I 392 W/m 0,4 C 11,3 C 11,3 km/h (2 Bft) 96 %
01.04.2020 17:20 11,3 C 47 % 1017,6 hPa 0,0 l/m 2 min 0 min 0,000 mm 1,7 UV-I 397 W/m 0,4 C 11,3 C 16,1 km/h (3 Bft) 96 %
01.04.2020 17:18 11,3 C 47 % 1017,7 hPa 0,0 l/m 2 min 0 min 0,000 mm 1,7 UV-I 403 W/m 0,4 C 11,3 C 16,1 km/h (3 Bft) 96 %
01.04.2020 17:16 11,3 C 49 % 1017,7 hPa 0,0 l/m 2 min 0 min 0,000 mm 1,7 UV-I 407 W/m 1,0 C 10,2 C 17,7 km/h (3 Bft) 94 %
01.04.2020 17:14 11,3 C 49 % 1017,7 hPa 0,0 l/m 2 min 0 min 0,000 mm 1,7 UV-I 410 W/m 1,0 C 11,3 C 14,5 km/h (3 Bft) 94 %
01.04.2020 17:12 11,4 C 49 % 1017,7 hPa 0,0 l/m 2 min 0 min 0,000 mm 1,8 UV-I 417 W/m 1,1 C 11,4 C 6,4 km/h (2 Bft) 96 %
01.04.2020 17:10 11,4 C 48 % 1017,8 hPa 0,0 l/m 2 min 0 min 0,000 mm 1,8 UV-I 423 W/m 0,8 C 11,4 C 9,7 km/h (2 Bft) 93 %
01.04.2020 17:08 11,4 C 48 % 1017,8 hPa 0,0 l/m 2 min 0 min 0,000 mm 1,8 UV-I 427 W/m 0,8 C 11,4 C 12,9 km/h (3 Bft) 94 %
01.04.2020 17:06 11,4 C 47 % 1017,8 hPa 0,0 l/m 2 min 0 min 0,000 mm 1,9 UV-I 431 W/m 0,5 C 11,4 C 14,5 km/h (3 Bft) 96 %
01.04.2020 17:04 11,4 C 47 % 1017,8 hPa 0,0 l/m 2 min 0 min 0,279 mm 1,9 UV-I 439 W/m 0,5 C 11,4 C 12,9 km/h (3 Bft) 95 %
01.04.2020 17:00 11,4 C 47 % 1017,9 hPa 0,0 l/m 2 min 0 min 0,000 mm 1,9 UV-I 444 W/m 0,5 C 11,2 C 14,5 km/h (3 Bft) 94 %
01.04.2020 16:58 11,5 C 48 % 1017,9 hPa 0,0 l/m 2 min 0 min 0,000 mm 2,0 UV-I 449 W/m 0,9 C 11,5 C 12,9 km/h (3 Bft) 96 %
01.04.2020 16:56 11,5 C 47 % 1017,9 hPa 0,0 l/m 2 min 0 min 0,000 mm 2,0 UV-I 455 W/m 0,6 C 11,2 C 17,7 km/h (3 Bft) 96 %
01.04.2020 16:54 11,4 C 48 % 1018,0 hPa 0,0 l/m 2 min 0 min 0,000 mm 2,0 UV-I 462 W/m 0,8 C 11,4 C 12,9 km/h (3 Bft) 94 %
01.04.2020 16:52 11,4 C 49 % 1018,0 hPa 0,0 l/m 2 min 0 min 0,000 mm 2,1 UV-I 466 W/m 1,1 C 11,4 C 6,4 km/h (2 Bft) 89 %
01.04.2020 16:50 11,4 C 48 % 1018,0 hPa 0,0 l/m 2 min 0 min 0,000 mm 2,1 UV-I 468 W/m 0,8 C 11,4 C 12,9 km/h (3 Bft) 96 %
01.04.2020 16:48 11,5 C 49 % 1018,0 hPa 0,0 l/m 2 min 0 min 0,000 mm 2,1 UV-I 474 W/m 1,2 C 11,5 C 12,9 km/h (3 Bft) 94 %
01.04.2020 16:46 11,5 C 48 % 1018,0 hPa 0,0 l/m 2 min 0 min 0,000 mm 2,2 UV-I 479 W/m 0,9 C 11,5 C 14,5 km/h (3 Bft) 96 %
01.04.2020 16:44 11,4 C 49 % 1018,0 hPa 0,0 l/m 2 min 0 min 0,000 mm 2,2 UV-I 484 W/m 1,1 C 10,7 C 17,7 km/h (3 Bft) 93 %
01.04.2020 16:42 11,4 C 48 % 1018,1 hPa 0,0 l/m 2 min 0 min 0,000 mm 2,2 UV-I 485 W/m 0,8 C 11,4 C 9,7 km/h (2 Bft) 98 %
01.04.2020 16:40 11,4 C 49 % 1018,1 hPa 0,0 l/m 2 min 0 min 0,000 mm 2,2 UV-I 490 W/m 1,1 C 9,8 C 16,1 km/h (3 Bft) 98 %
01.04.2020 16:38 11,4 C 49 % 1018,1 hPa 0,0 l/m 2 min 0 min 0,000 mm 2,3 UV-I 496 W/m 1,1 C 11,1 C 14,5 km/h (3 Bft) 96 %
01.04.2020 16:36 11,4 C 49 % 1018,2 hPa 0,0 l/m 2 min 0 min 0,000 mm 2,3 UV-I 500 W/m 1,1 C 11,4 C 24,1 km/h (4 Bft) 98 %
01.04.2020 16:34 11,4 C 49 % 1018,2 hPa 0,0 l/m 2 min 0 min 0,000 mm 2,3 UV-I 507 W/m 1,1 C 11,4 C 1,6 km/h (1 Bft) 98 %
01.04.2020 16:32 11,4 C 48 % 1018,2 hPa 0,0 l/m 2 min 0 min 0,000 mm 2,4 UV-I 510 W/m 0,8 C 11,4 C 6,4 km/h (2 Bft) 93 %
01.04.2020 16:30 11,4 C 49 % 1018,2 hPa 0,0 l/m 2 min 0 min 0,000 mm 2,4 UV-I 515 W/m 1,1 C 11,4 C 3,2 km/h (1 Bft) 98 %
01.04.2020 16:28 11,4 C 48 % 1018,3 hPa 0,0 l/m 2 min 0 min 0,000 mm 2,4 UV-I 521 W/m 0,8 C 11,4 C 12,9 km/h (3 Bft) 98 %
01.04.2020 16:26 11,5 C 49 % 1018,3 hPa 0,0 l/m 2 min 0 min 0,000 mm 2,5 UV-I 526 W/m 1,2 C 11,5 C 6,4 km/h (2 Bft) 96 %
01.04.2020 16:24 11,6 C 46 % 1018,3 hPa 0,0 l/m 2 min 0 min 0,000 mm 2,5 UV-I 529 W/m 0,4 C 11,6 C 14,5 km/h (3 Bft) 98 %
01.04.2020 16:22 11,7 C 46 % 1018,4 hPa 0,0 l/m 2 min 0 min 0,000 mm 2,5 UV-I 534 W/m 0,5 C 11,7 C 8,0 km/h (2 Bft) 98 %
01.04.2020 16:20 11,7 C 46 % 1018,4 hPa 0,0 l/m 2 min 0 min 0,000 mm 2,6 UV-I 538 W/m 0,5 C 11,7 C 9,7 km/h (2 Bft) 96 %
01.04.2020 16:18 11,7 C 46 % 1018,4 hPa 0,0 l/m 2 min 0 min 0,000 mm 2,6 UV-I 543 W/m 0,5 C 11,7 C 17,7 km/h (3 Bft) 98 %
01.04.2020 16:16 11,7 C 47 % 1018,4 hPa 0,0 l/m 2 min 0 min 0,000 mm 2,6 UV-I 547 W/m 0,8 C 11,4 C 14,5 km/h (3 Bft) 98 %
01.04.2020 16:14 11,6 C 48 % 1018,4 hPa 0,0 l/m 2 min 0 min 0,000 mm 2,6 UV-I 549 W/m 1,0 C 11,6 C 14,5 km/h (3 Bft) 98 %
01.04.2020 16:12 11,4 C 48 % 1018,5 hPa 0,0 l/m 2 min 0 min 0,000 mm 2,7 UV-I 554 W/m 0,8 C 11,4 C 8,0 km/h (2 Bft) 96 %
01.04.2020 16:10 11,3 C 50 % 1018,5 hPa 0,0 l/m 2 min 0 min 0,000 mm 2,7 UV-I 558 W/m 1,3 C 11,3 C 12,9 km/h (3 Bft) 98 %
01.04.2020 16:08 11,0 C 49 % 1018,5 hPa 0,0 l/m 2 min 0 min 0,000 mm 2,7 UV-I 564 W/m 0,7 C 11,0 C 14,5 km/h (3 Bft) 98 %
01.04.2020 16:06 10,8 C 49 % 1018,5 hPa 0,0 l/m 2 min 0 min 0,000 mm 2,8 UV-I 568 W/m 0,5 C 10,8 C 16,1 km/h (3 Bft) 96 %
01.04.2020 16:04 10,7 C 49 % 1018,5 hPa 0,0 l/m 2 min 0 min 0,331 mm 2,8 UV-I 573 W/m 0,4 C 10,7 C 11,3 km/h (2 Bft) 97 %
01.04.2020 16:00 10,7 C 50 % 1018,6 hPa 0,0 l/m 2 min 0 min 0,000 mm 2,9 UV-I 577 W/m 0,7 C 10,7 C 8,0 km/h (2 Bft) 98 %
01.04.2020 15:58 10,8 C 48 % 1018,5 hPa 0,0 l/m 2 min 0 min 0,000 mm 2,9 UV-I 582 W/m 0,2 C 10,8 C 0,0 km/h (0 Bft) 96 %
01.04.2020 15:56 10,8 C 47 % 1018,6 hPa 0,0 l/m 2 min 0 min 0,000 mm 2,9 UV-I 588 W/m -0,1 C 10,8 C 4,8 km/h (1 Bft) 98 %
01.04.2020 15:54 11,1 C 47 % 1018,6 hPa 0,0 l/m 2 min 0 min 0,000 mm 3,0 UV-I 591 W/m 0,2 C 11,1 C 1,6 km/h (1 Bft) 94 %
01.04.2020 15:52 11,2 C 48 % 1018,6 hPa 0,0 l/m 2 min 0 min 0,000 mm 3,0 UV-I 594 W/m 0,6 C 11,2 C 0,0 km/h (0 Bft) 98 %
01.04.2020 15:50 11,2 C 46 % 1018,6 hPa 0,0 l/m 2 min 0 min 0,000 mm 3,1 UV-I 598 W/m 0,0 C 11,2 C 6,4 km/h (2 Bft) 93 %
01.04.2020 15:48 11,2 C 48 % 1018,6 hPa 0,0 l/m 2 min 0 min 0,000 mm 3,1 UV-I 600 W/m 0,6 C 10,7 C 16,1 km/h (3 Bft) 94 %
01.04.2020 15:46 11,1 C 48 % 1018,7 hPa 0,0 l/m 2 min 0 min 0,000 mm 3,1 UV-I 604 W/m 0,5 C 11,1 C 12,9 km/h (3 Bft) 94 %
01.04.2020 15:44 10,9 C 48 % 1018,7 hPa 0,0 l/m 2 min 0 min 0,000 mm 3,1 UV-I 608 W/m 0,3 C 10,9 C 14,5 km/h (3 Bft) 91 %
01.04.2020 15:42 10,8 C 47 % 1018,8 hPa 0,0 l/m 2 min 0 min 0,000 mm 3,2 UV-I 612 W/m -0,1 C 10,8 C 4,8 km/h (1 Bft) 96 %
01.04.2020 15:40 10,8 C 48 % 1018,8 hPa 0,0 l/m 2 min 0 min 0,000 mm 3,2 UV-I 617 W/m 0,2 C 10,8 C 14,5 km/h (3 Bft) 96 %
01.04.2020 15:38 10,7 C 49 % 1018,8 hPa 0,0 l/m 2 min 0 min 0,000 mm 3,2 UV-I 622 W/m 0,4 C 10,7 C 14,5 km/h (3 Bft) 91 %
01.04.2020 15:36 10,5 C 50 % 1018,8 hPa 0,0 l/m 2 min 0 min 0,000 mm 3,3 UV-I 625 W/m 0,5 C 10,5 C 12,9 km/h (3 Bft) 96 %
01.04.2020 15:34 10,6 C 49 % 1018,9 hPa 0,0 l/m 2 min 0 min 0,000 mm 3,3 UV-I 628 W/m 0,3 C 10,6 C 1,6 km/h (1 Bft) 96 %
01.04.2020 15:32 10,7 C 50 % 1018,9 hPa 0,0 l/m 2 min 0 min 0,000 mm 3,3 UV-I 628 W/m 0,7 C 10,7 C 8,0 km/h (2 Bft) 94 %
01.04.2020 15:30 10,8 C 50 % 1018,9 hPa 0,0 l/m 2 min 0 min 0,000 mm 3,4 UV-I 632 W/m 0,8 C 9,6 C 20,9 km/h (4 Bft) 96 %
01.04.2020 15:28 10,6 C 52 % 1018,9 hPa 0,0 l/m 2 min 0 min 0,000 mm 3,4 UV-I 638 W/m 1,2 C 10,6 C 16,1 km/h (3 Bft) 96 %
01.04.2020 15:26 10,3 C 51 % 1018,9 hPa 0,0 l/m 2 min 0 min 0,000 mm 3,4 UV-I 643 W/m 0,6 C 7,6 C 19,3 km/h (3 Bft) 91 %
01.04.2020 15:24 10,1 C 53 % 1018,9 hPa 0,0 l/m 2 min 0 min 0,000 mm 3,4 UV-I 644 W/m 1,0 C 10,1 C 8,0 km/h (2 Bft) 96 %
01.04.2020 15:22 9,7 C 53 % 1019,0 hPa 0,0 l/m 2 min 0 min 0,000 mm 3,5 UV-I 646 W/m 0,6 C 9,7 C 3,2 km/h (1 Bft) 98 %
01.04.2020 15:20 9,7 C 52 % 1019,0 hPa 0,0 l/m 2 min 0 min 0,000 mm 3,5 UV-I 649 W/m 0,3 C 9,7 C 4,8 km/h (1 Bft) 100 %
01.04.2020 15:18 9,8 C 49 % 1019,0 hPa 0,0 l/m 2 min 0 min 0,000 mm 3,5 UV-I 651 W/m -0,4 C 9,8 C 1,6 km/h (1 Bft) 100 %
01.04.2020 15:16 10,1 C 50 % 1019,0 hPa 0,0 l/m 2 min 0 min 0,000 mm 3,6 UV-I 651 W/m 0,2 C 10,1 C 0,0 km/h (0 Bft) 100 %
01.04.2020 15:14 10,4 C 52 % 1019,0 hPa 0,0 l/m 2 min 0 min 0,000 mm 3,6 UV-I 652 W/m 1,0 C 10,4 C 0,0 km/h (0 Bft) 100 %
01.04.2020 15:12 10,9 C 51 % 1019,0 hPa 0,0 l/m 2 min 0 min 0,000 mm 3,6 UV-I 657 W/m 1,2 C 10,9 C 6,4 km/h (2 Bft) 100 %
01.04.2020 15:10 11,0 C 49 % 1019,1 hPa 0,0 l/m 2 min 0 min 0,000 mm 3,6 UV-I 659 W/m 0,7 C 11,0 C 11,3 km/h (2 Bft) 96 %
01.04.2020 15:08 10,9 C 48 % 1019,1 hPa 0,0 l/m 2 min 0 min 0,000 mm 3,7 UV-I 662 W/m 0,3 C 10,9 C 1,6 km/h (1 Bft) 98 %
01.04.2020 15:06 11,1 C 50 % 1019,1 hPa 0,0 l/m 2 min 0 min 0,000 mm 3,7 UV-I 666 W/m 1,1 C 11,1 C 16,1 km/h (3 Bft) 95 %
01.04.2020 15:04 11,1 C 49 % 1019,1 hPa 0,0 l/m 2 min 0 min 0,355 mm 3,7 UV-I 670 W/m 0,8 C 10,6 C 16,1 km/h (3 Bft) 100 %
01.04.2020 15:00 11,2 C 49 % 1019,1 hPa 0,0 l/m 2 min 0 min 0,000 mm 3,8 UV-I 673 W/m 0,9 C 8,5 C 19,3 km/h (3 Bft) 100 %
01.04.2020 14:58 11,1 C 53 % 1019,1 hPa 0,0 l/m 2 min 0 min 0,000 mm 3,8 UV-I 677 W/m 1,9 C 11,1 C 14,5 km/h (3 Bft) 98 %
01.04.2020 14:56 10,8 C 51 % 1019,1 hPa 0,0 l/m 2 min 0 min 0,000 mm 3,8 UV-I 680 W/m 1,1 C 10,8 C 3,2 km/h (1 Bft) 100 %
01.04.2020 14:54 10,7 C 52 % 1019,2 hPa 0,0 l/m 2 min 0 min 0,000 mm 3,9 UV-I 683 W/m 1,3 C 10,7 C 17,7 km/h (3 Bft) 100 %
01.04.2020 14:52 10,6 C 51 % 1019,2 hPa 0,0 l/m 2 min 0 min 0,000 mm 3,9 UV-I 684 W/m 0,9 C 10,6 C 17,7 km/h (3 Bft) 100 %
01.04.2020 14:50 10,8 C 47 % 1019,3 hPa 0,0 l/m 2 min 0 min 0,000 mm 3,9 UV-I 686 W/m -0,1 C 10,8 C 3,2 km/h (1 Bft) 100 %
01.04.2020 14:48 11,1 C 48 % 1019,3 hPa 0,0 l/m 2 min 0 min 0,000 mm 3,9 UV-I 686 W/m 0,5 C 11,1 C 9,7 km/h (2 Bft) 100 %
01.04.2020 14:46 10,9 C 50 % 1019,3 hPa 0,0 l/m 2 min 0 min 0,000 mm 4,0 UV-I 690 W/m 0,9 C 10,9 C 8,0 km/h (2 Bft) 98 %
01.04.2020 14:44 10,8 C 48 % 1019,3 hPa 0,0 l/m 2 min 0 min 0,000 mm 4,0 UV-I 693 W/m 0,2 C 10,8 C 1,6 km/h (1 Bft) 98 %
01.04.2020 14:42 10,9 C 50 % 1019,4 hPa 0,0 l/m 2 min 0 min 0,000 mm 4,0 UV-I 692 W/m 0,9 C 9,0 C 17,7 km/h (3 Bft) 100 %
01.04.2020 14:40 10,8 C 50 % 1019,4 hPa 0,0 l/m 2 min 0 min 0,000 mm 4,0 UV-I 692 W/m 0,8 C 10,5 C 17,7 km/h (3 Bft) 98 %
01.04.2020 14:38 10,7 C 50 % 1019,5 hPa 0,0 l/m 2 min 0 min 0,000 mm 4,0 UV-I 694 W/m 0,7 C 10,7 C 14,5 km/h (3 Bft) 98 %
01.04.2020 14:36 10,7 C 49 % 1019,5 hPa 0,0 l/m 2 min 0 min 0,000 mm 4,0 UV-I 696 W/m 0,4 C 10,7 C 12,9 km/h (3 Bft) 100 %
01.04.2020 14:34 10,8 C 49 % 1019,5 hPa 0,0 l/m 2 min 0 min 0,000 mm 4,1 UV-I 700 W/m 0,5 C 10,8 C 9,7 km/h (2 Bft) 96 %
01.04.2020 14:32 10,8 C 52 % 1019,6 hPa 0,0 l/m 2 min 0 min 0,000 mm 4,1 UV-I 702 W/m 1,3 C 10,8 C 17,7 km/h (3 Bft) 100 %
01.04.2020 14:30 10,7 C 51 % 1019,6 hPa 0,0 l/m 2 min 0 min 0,000 mm 4,1 UV-I 703 W/m 1,0 C 10,7 C 12,9 km/h (3 Bft) 100 %
01.04.2020 14:28 10,6 C 54 % 1019,6 hPa 0,0 l/m 2 min 0 min 0,000 mm 4,1 UV-I 705 W/m 1,7 C 9,7 C 14,5 km/h (3 Bft) 96 %
01.04.2020 14:26 10,3 C 54 % 1019,6 hPa 0,0 l/m 2 min 0 min 0,000 mm 4,1 UV-I 708 W/m 1,4 C 9,2 C 20,9 km/h (4 Bft) 100 %
01.04.2020 14:24 10,4 C 49 % 1019,6 hPa 0,0 l/m 2 min 0 min 0,000 mm 4,1 UV-I 709 W/m 0,2 C 10,4 C 16,1 km/h (3 Bft) 100 %
01.04.2020 14:22 10,7 C 51 % 1019,6 hPa 0,0 l/m 2 min 0 min 0,000 mm 4,1 UV-I 710 W/m 1,0 C 10,7 C 6,4 km/h (2 Bft) 98 %
01.04.2020 14:20 10,8 C 51 % 1019,7 hPa 0,0 l/m 2 min 0 min 0,000 mm 4,2 UV-I 711 W/m 1,1 C 10,8 C 6,4 km/h (2 Bft) 96 %
01.04.2020 14:18 10,8 C 50 % 1019,7 hPa 0,0 l/m 2 min 0 min 0,000 mm 4,2 UV-I 713 W/m 0,8 C 10,8 C 8,0 km/h (2 Bft) 96 %
01.04.2020 14:16 10,8 C 49 % 1019,7 hPa 0,0 l/m 2 min 0 min 0,000 mm 4,2 UV-I 714 W/m 0,5 C 10,8 C 6,4 km/h (2 Bft) 98 %
01.04.2020 14:14 10,6 C 53 % 1019,7 hPa 0,0 l/m 2 min 0 min 0,000 mm 4,2 UV-I 715 W/m 1,4 C 10,6 C 8,0 km/h (2 Bft) 96 %
01.04.2020 14:12 10,3 C 54 % 1019,7 hPa 0,0 l/m 2 min 0 min 0,000 mm 4,2 UV-I 716 W/m 1,4 C 10,3 C 12,9 km/h (3 Bft) 91 %
01.04.2020 14:10 10,1 C 52 % 1019,7 hPa 0,0 l/m 2 min 0 min 0,000 mm 4,2 UV-I 717 W/m 0,7 C 10,1 C 4,8 km/h (1 Bft) 96 %
01.04.2020 14:08 10,3 C 50 % 1019,7 hPa 0,0 l/m 2 min 0 min 0,000 mm 4,2 UV-I 717 W/m 0,3 C 10,3 C 8,0 km/h (2 Bft) 94 %
01.04.2020 14:06 10,4 C 52 % 1019,8 hPa 0,0 l/m 2 min 0 min 0,000 mm 4,2 UV-I 717 W/m 1,0 C 10,4 C 12,9 km/h (3 Bft) 96 %
01.04.2020 14:04 10,4 C 51 % 1019,8 hPa 0,0 l/m 2 min 0 min 0,356 mm 4,3 UV-I 720 W/m 0,7 C 10,4 C 16,1 km/h (3 Bft) 96 %
01.04.2020 14:00 10,1 C 53 % 1019,8 hPa 0,0 l/m 2 min 0 min 0,000 mm 4,3 UV-I 719 W/m 1,0 C 10,1 C 11,3 km/h (2 Bft) 94 %
_ Min-Zeit 06:40 18:26 13:32 - - - - - - 06:40 06:34 15:14 09:48
Minimum _ -0,8 C 45 % 1013,0 hPa - - - - - - -2,8 C -3,8 C 0,0 km/h (0 Bft) 87 %
_ Max-Zeit 16:16 08:00 14:00 14:00 14:00 14:00 14:04 14:00 13:08 12:42 16:18 16:36 14:24
Maximum _ 11,7 C 89 % 1019,8 hPa 0,0 l/m 2 min 0 min 0,356 mm 4,3 UV-I 948 W/m 4,8 C 11,7 C 24,1 km/h
N-NO (4 Bft)
100 %
Durchschnitt _ 5,5 C 68 % 1016,2 hPa #0,0 l/m #4:36 h #0 min. #1,041 mm 2,1 UV-I 376 W/m -0,3 C 5,4 C 7,4 km/h (2 Bft) 97 %